GFSNE_sfc_wetblb_000.txt.gz
Wetbulb
33.67 33.88 34.25 35.18 35.44 36.64 38.21 35.54 32.54 28.84 30.94 32.09 32.62 36.82 37.60 38.54 40.61 42.13 43.39 46.21 45.71 44.67 44.63 45.57 46.52 47.12 45.27 45.04 45.31 46.19 47.77 48.84 50.16 50.85 50.42 50.53 50.74 51.60
34.53 33.43 33.33 34.19 34.60 35.45 36.19 36.63 34.63 32.72 29.51 33.13 33.98 35.10 37.02 38.31 40.13 39.82 41.92 44.42 45.06 44.16 43.46 44.24 43.82 45.83 45.09 44.21 44.37 44.95 44.94 46.06 47.07 47.82 48.91 48.49 47.67 48.06
31.31 30.21 29.75 30.06 29.43 29.98 30.89 32.46 33.84 34.75 31.42 31.68 33.64 32.95 32.21 32.74 34.94 36.40 40.02 39.94 42.70 43.26 42.87 43.18 42.69 42.96 43.20 42.91 42.65 42.91 43.08 43.89 44.51 44.67 45.27 46.89 47.53 47.45
28.39 27.76 27.82 29.79 27.16 27.57 28.07 28.21 29.48 30.65 31.45 28.69 29.23 30.40 30.47 31.88 32.49 33.36 36.41 39.34 41.47 41.72 42.77 42.94 42.61 41.53 41.31 41.27 41.19 41.21 41.19 41.63 42.05 42.84 43.47 43.76 44.46 45.06
26.80 26.42 26.22 26.32 25.30 26.02 26.61 27.54 28.47 30.63 29.60 28.00 27.72 28.97 29.12 30.37 31.11 32.98 32.87 33.08 36.99 41.71 40.19 41.60 41.95 41.66 41.38 40.71 40.74 40.84 40.77 40.67 40.28 40.75 41.20 41.85 42.57 43.13
27.02 26.22 25.79 25.14 24.68 25.49 26.88 27.28 28.24 26.69 26.22 25.58 25.24 25.44 25.79 28.09 29.85 28.88 27.37 28.93 30.40 35.96 37.19 36.68 37.66 40.16 40.91 40.84 40.56 40.80 40.83 40.98 40.89 40.54 40.03 39.30 39.35 40.57
25.66 25.58 25.35 26.79 29.06 29.18 28.78 29.25 27.42 25.09 23.96 23.46 22.77 23.00 22.94 23.20 24.12 26.15 25.64 26.31 27.86 30.47 31.62 31.88 30.95 32.18 34.93 36.97 39.29 40.76 40.62 40.51 40.77 41.00 40.72 39.67 38.69 39.02
23.11 23.92 24.51 26.79 26.96 28.53 29.33 29.90 29.18 26.90 26.25 24.52 22.21 21.05 21.43 22.19 23.50 23.49 22.42 23.10 23.08 28.15 28.08 28.19 29.91 29.60 31.39 34.23 38.45 38.21 38.37 38.44 38.97 39.59 40.26 40.21 39.81 38.75
23.94 23.53 24.23 26.05 26.33 26.24 27.67 28.38 28.03 29.21 29.58 27.26 24.55 23.03 22.38 23.19 23.72 22.38 21.88 22.31 22.58 26.72 27.51 25.25 28.91 27.61 29.41 33.08 37.04 37.39 37.10 37.17 37.21 37.01 37.19 37.80 38.39 38.28
24.50 23.95 23.43 23.75 24.54 24.96 24.93 26.35 26.25 26.34 26.33 26.27 24.41 24.39 25.01 25.48 25.26 25.60 24.40 25.01 26.07 27.06 27.70 22.03 25.86 24.81 27.70 28.79 34.76 37.88 37.37 36.79 36.94 36.97 36.96 36.65 36.49 37.03
24.47 24.45 24.06 23.45 26.05 28.21 26.30 23.87 23.44 24.35 27.13 28.67 29.71 29.70 30.18 30.81 30.02 27.54 26.39 25.50 23.32 23.83 25.73 24.53 23.03 20.40 20.90 22.12 26.33 34.60 36.19 36.87 37.23 36.89 36.97 36.79 36.62 36.27
22.46 23.29 24.62 24.26 25.72 27.24 25.80 24.35 21.68 22.25 22.50 23.04 23.84 25.02 26.01 25.87 28.01 27.10 25.74 24.62 24.23 20.21 24.15 23.52 22.99 22.38 19.47 20.88 22.55 23.27 23.41 32.08 35.43 36.67 37.09 37.11 36.81 33.21
20.19 21.20 22.63 25.33 25.97 25.92 26.11 24.23 24.03 25.25 24.74 24.46 22.54 22.08 22.50 23.37 24.26 25.28 25.33 24.85 22.89 23.05 26.33 26.65 23.95 22.77 21.46 21.38 21.75 23.34 22.66 23.02 23.94 30.25 35.67 36.71 37.10 35.76
20.00 21.71 22.96 24.57 25.21 25.57 25.30 26.07 25.80 24.49 22.99 21.24 21.25 21.29 21.84 22.74 25.09 26.94 27.94 27.76 27.22 26.56 28.73 28.47 25.66 24.59 21.46 18.34 20.86 23.85 22.14 22.05 20.67 26.09 25.26 31.32 33.75 35.28
21.71 22.95 23.18 23.40 23.73 24.03 24.22 24.82 24.13 22.43 21.70 19.77 21.81 23.11 24.67 26.16 27.13 27.07 27.74 28.96 29.78 30.27 30.64 29.96 29.74 27.49 25.72 24.06 20.67 21.96 21.82 22.19 19.24 22.16 22.30 23.03 25.22 25.06
21.58 20.96 20.97 22.33 21.25 21.59 21.94 22.69 22.42 22.27 21.60 20.75 21.45 23.13 25.20 26.09 26.10 27.57 26.71 26.74 26.67 26.55 29.34 29.93 30.62 30.62 28.68 27.93 27.89 25.68 24.29 23.38 21.53 22.21 30.03 30.29 29.91 30.83
16.14 15.11 17.27 17.42 17.05 17.36 17.78 19.44 20.45 21.51 20.36 21.21 21.08 21.96 23.72 25.03 25.42 26.74 26.27 27.10 24.33 21.85 23.71 26.70 28.03 28.94 30.16 29.39 27.06 27.41 24.82 22.50 20.83 23.91 24.35 24.78 24.02 27.77
14.55 12.35 9.82 10.63 14.62 15.57 13.92 15.09 17.25 18.92 19.71 20.12 20.10 20.96 21.65 22.64 23.62 24.57 25.05 23.17 22.99 22.65 22.34 26.69 26.59 28.27 28.71 27.57 31.15 27.04 26.54 26.69 21.04 23.52 26.24 26.60 26.82 23.50
10.94 11.86 8.93 9.62 9.89 15.53 14.62 14.31 14.26 16.26 18.71 18.14 18.08 18.62 19.75 21.33 21.92 21.35 19.10 18.22 18.71 22.90 22.78 21.96 25.56 27.99 25.48 20.67 23.36 30.08 27.68 28.25 26.26 17.59 21.74 27.03 27.76 22.92
10.27 10.85 10.57 12.49 13.69 14.64 14.15 13.27 12.99 12.42 12.36 14.59 15.36 15.97 17.08 19.32 18.06 18.91 18.86 16.60 19.84 22.60 22.54 20.82 19.34 22.28 18.92 17.52 18.07 15.30 26.84 26.05 26.73 25.00 25.44 24.23 25.56 29.19
8.82 10.46 10.16 11.50 12.68 13.39 9.48 9.53 8.35 9.32 9.79 9.51 12.56 13.93 14.90 17.41 17.88 19.15 17.83 15.08 13.73 19.41 18.69 17.99 19.50 21.99 22.56 22.45 16.41 14.30 13.34 26.40 22.11 15.05 16.07 14.33 15.94 19.40
3.88 8.10 9.02 10.19 9.98 10.14 7.69 6.47 8.06 4.96 8.34 9.36 9.67 10.71 11.93 15.17 16.05 17.17 16.09 12.69 14.66 11.84 15.32 18.08 22.32 23.98 20.69 20.65 15.76 10.30 14.24 12.64 20.85 26.43 26.36 23.54 16.60 15.47
2.02 5.23 3.29 2.13 4.77 7.74 11.55 8.22 7.32 5.29 6.85 8.09 8.68 9.47 9.19 11.61 15.27 15.72 14.15 13.30 14.65 13.42 14.37 18.19 19.20 20.80 22.10 20.41 16.08 18.36 12.31 10.15 20.52 16.87 14.19 24.97 26.67 26.82

GFSNE_sfc_wetblb_003.txt.gz
Wetbulb
31.29 31.09 31.14 31.58 30.80 31.26 32.10 32.70 31.50 24.92 25.39 29.57 30.81 34.87 37.27 38.00 38.44 39.05 40.03 44.78 44.39 45.00 45.40 46.31 47.26 47.15 46.96 47.01 44.91 45.16 46.15 48.34 50.24 51.29 51.60 51.14 50.34 50.47
32.58 30.72 29.11 30.24 28.86 29.29 27.80 29.48 30.30 30.08 26.40 30.95 31.14 33.84 36.51 36.26 37.09 35.64 36.95 43.20 42.51 42.89 43.50 43.24 44.93 45.63 46.61 46.57 46.27 45.02 45.09 45.71 47.47 49.17 49.58 48.68 48.85 48.86
28.32 27.72 27.46 27.94 26.51 26.46 26.67 26.60 26.96 27.81 26.06 28.48 33.02 35.36 33.73 33.06 33.96 35.11 35.93 35.59 39.22 42.12 41.70 42.32 42.91 43.48 43.88 44.93 44.56 43.93 43.51 44.75 45.80 46.52 47.14 47.80 48.06 48.52
26.76 26.49 26.46 28.27 24.84 24.66 24.56 24.53 25.36 26.96 26.59 24.68 29.64 29.44 31.12 32.49 32.67 33.23 34.75 35.73 34.43 39.58 40.75 41.93 41.14 42.69 42.79 41.67 41.53 41.67 42.16 42.61 42.35 43.75 45.00 45.50 45.94 46.54
26.25 25.75 25.47 24.99 23.22 23.32 23.81 24.35 25.49 27.82 26.82 25.51 26.31 27.90 29.24 30.09 29.97 32.57 31.59 31.40 33.94 38.17 38.66 39.32 39.89 41.38 42.06 41.23 41.25 41.24 41.26 40.94 40.73 41.09 41.76 42.48 43.39 43.90
26.44 26.00 25.04 24.47 23.06 23.38 24.19 27.06 28.65 27.81 26.20 24.96 25.41 25.34 25.77 26.19 28.06 27.07 26.54 28.87 28.21 33.66 35.43 35.69 37.13 38.07 40.11 40.85 40.38 40.69 40.87 40.71 40.56 40.21 39.81 39.51 39.60 40.98
25.57 25.56 25.04 26.33 28.94 27.33 25.81 24.54 25.79 26.83 26.04 26.03 24.24 23.97 23.43 22.34 22.73 24.81 24.38 24.50 26.61 28.54 28.46 30.27 31.59 32.67 34.17 36.97 39.21 40.85 40.49 40.58 40.55 40.81 40.26 39.40 38.66 39.32
23.56 24.32 24.60 26.66 26.36 27.22 27.68 28.19 27.18 25.52 25.23 24.91 25.12 24.41 24.77 22.84 23.06 22.45 22.09 21.84 21.25 27.22 27.06 26.58 29.95 28.73 29.51 32.45 38.20 38.39 39.02 39.41 39.65 39.90 40.02 39.87 39.39 38.63
25.00 24.43 23.94 25.19 24.61 24.31 25.57 26.55 26.63 27.95 28.34 26.12 24.49 23.95 23.87 23.25 23.14 22.06 21.45 21.72 21.99 24.64 26.60 24.28 26.99 27.63 28.63 31.52 35.49 37.59 37.59 37.50 37.48 37.34 37.47 37.73 38.04 38.30
23.09 22.68 22.52 22.67 24.18 24.48 25.59 25.20 25.55 24.82 26.15 26.54 25.79 24.73 24.40 25.11 24.97 24.93 23.60 23.29 23.77 25.95 26.59 20.32 24.12 23.42 28.93 30.60 33.95 36.56 37.35 36.84 37.14 36.76 36.78 36.53 36.48 36.95
22.51 22.30 22.87 22.61 24.63 27.44 25.58 24.21 24.23 24.45 26.90 27.38 27.44 28.06 28.68 29.84 29.36 26.91 23.80 24.41 22.79 24.26 25.22 23.85 21.71 20.15 19.87 22.62 28.49 35.10 35.91 36.28 36.69 36.75 36.69 36.63 36.41 36.08
20.69 21.67 23.35 23.65 25.86 25.70 23.68 22.96 21.42 22.05 22.61 23.05 23.14 24.68 25.61 25.08 27.04 26.00 24.79 24.05 24.35 20.90 23.84 23.69 23.46 21.38 17.71 19.66 20.38 22.55 22.75 32.30 34.96 35.81 36.62 36.92 36.59 32.01
19.89 19.99 21.83 24.24 24.94 25.50 25.40 23.71 23.96 25.32 24.07 23.19 23.36 22.39 22.32 22.64 23.43 24.31 24.30 23.50 21.58 21.21 24.74 24.49 23.86 22.08 19.90 20.28 20.20 21.41 21.83 21.68 23.09 28.67 33.58 36.23 36.65 34.91
19.17 20.68 21.39 23.66 23.93 24.26 23.69 25.16 24.56 23.44 21.74 21.30 21.25 21.55 22.01 22.44 23.97 25.32 25.89 25.24 25.41 24.79 25.39 27.01 21.61 23.53 21.12 16.88 19.10 21.38 20.30 20.66 19.67 24.88 24.49 31.06 34.25 35.46
18.99 21.49 22.41 22.24 21.89 21.71 22.62 23.27 22.15 21.05 20.33 19.11 19.85 21.36 23.30 25.51 27.08 27.21 27.73 28.65 28.84 28.55 28.75 28.35 27.55 26.01 23.20 23.36 20.35 19.49 20.20 21.47 17.06 20.62 26.12 25.68 23.76 22.58
17.05 16.57 18.07 20.31 17.97 17.87 17.99 19.83 20.45 20.06 20.38 19.74 20.03 21.93 24.19 25.12 25.49 27.36 26.31 26.81 26.09 26.01 29.17 30.68 29.95 29.47 27.40 27.83 27.40 24.46 21.86 26.39 18.87 20.24 23.06 29.23 29.12 30.24
9.14 8.76 13.24 13.38 14.56 15.75 14.38 15.60 17.66 18.32 17.75 18.66 19.06 20.10 22.08 23.79 24.83 26.49 26.61 26.65 22.47 22.98 23.20 23.40 28.43 30.42 29.88 29.01 27.15 27.50 26.87 24.30 22.02 21.27 25.08 22.27 21.91 24.53
9.51 6.04 8.17 6.19 9.51 13.88 12.75 11.58 12.60 14.21 15.56 17.04 17.05 18.29 19.03 20.94 23.33 24.41 24.73 23.15 23.01 23.40 23.38 26.25 27.39 27.85 27.99 26.52 31.08 28.03 26.80 26.56 26.75 26.72 25.64 25.79 22.79 22.16
5.38 3.88 3.62 8.26 8.93 13.96 13.21 12.40 10.36 10.34 13.41 14.35 14.83 15.19 16.61 18.70 20.50 21.05 21.30 20.89 21.27 21.41 19.86 19.11 23.76 26.86 25.09 22.03 22.16 30.14 27.57 28.58 27.49 25.63 26.09 26.07 22.42 21.82
7.62 4.64 2.91 5.81 11.50 13.09 13.17 11.57 10.52 7.81 4.55 9.66 12.05 12.61 13.32 15.51 17.28 18.51 18.98 15.81 17.60 20.53 20.46 20.53 19.41 22.15 18.04 15.15 18.90 18.83 26.93 25.69 26.45 25.85 25.42 25.59 27.09 28.24
7.35 8.31 3.38 4.52 8.20 11.45 8.23 7.81 3.40 3.51 3.31 2.11 5.14 10.61 11.38 13.00 15.04 16.89 16.23 16.12 15.58 18.23 17.60 16.68 17.43 20.34 20.51 21.22 17.69 12.32 12.31 25.37 22.93 16.72 18.19 17.70 15.56 21.99
4.67 7.68 8.19 5.54 3.39 4.07 3.01 4.12 7.26 5.23 6.25 6.06 4.91 5.15 6.39 10.48 13.25 14.32 11.99 6.88 12.49 11.48 14.21 17.25 20.33 22.59 19.52 18.72 13.25 8.71 14.79 15.91 22.20 25.56 26.05 22.80 15.76 13.26
4.64 6.39 3.45 -0.76 -2.34 -1.45 4.23 1.75 5.11 5.27 6.47 6.28 6.29 6.83 4.81 7.73 11.07 10.99 11.39 11.32 12.71 12.24 13.64 16.43 18.20 18.52 19.55 19.76 14.19 14.78 13.32 11.40 21.04 17.21 13.47 23.73 26.68 26.82

GFSNE_sfc_wetblb_006.txt.gz
Wetbulb
31.73 31.56 30.54 31.31 30.19 28.83 30.32 28.93 26.76 21.75 22.91 27.31 29.79 34.68 35.79 37.73 38.25 37.58 36.87 39.98 43.66 44.08 43.82 43.88 44.76 47.22 47.45 46.56 45.79 45.48 45.90 48.24 50.38 53.16 54.85 53.42 52.54 52.47
32.30 30.87 28.60 29.04 28.44 28.25 26.94 27.55 27.32 24.37 21.05 27.46 28.86 32.36 35.10 36.53 37.67 37.30 36.25 38.52 39.99 42.58 42.00 42.67 42.98 43.75 45.89 47.04 46.69 45.94 44.92 47.15 49.16 50.95 50.92 50.72 50.36 50.85
28.34 27.91 27.69 27.32 26.56 26.49 26.16 25.64 24.96 25.15 22.07 24.80 28.45 30.88 30.85 33.95 34.57 36.62 37.10 35.67 36.09 39.73 40.94 41.31 41.08 41.19 42.27 44.11 44.52 45.72 44.93 46.40 47.90 49.23 50.10 49.83 49.74 50.39
27.35 26.83 26.43 28.18 25.06 24.57 24.23 23.65 24.09 24.92 23.79 22.66 26.12 27.80 29.69 32.47 32.37 33.86 35.68 36.26 33.52 38.37 40.06 40.38 40.68 40.62 40.89 41.91 42.37 43.03 42.70 43.49 44.19 45.22 46.55 48.31 49.31 49.22
26.58 26.04 25.70 25.39 23.78 23.41 23.35 23.65 24.26 26.52 27.49 26.81 26.19 27.77 28.53 29.89 30.33 32.43 32.98 32.90 33.38 36.23 36.88 37.88 39.59 40.10 40.25 41.39 42.27 41.53 41.55 41.74 41.72 42.18 42.74 43.44 44.72 45.37
26.74 26.03 25.54 24.94 23.85 23.42 24.41 23.92 25.27 24.15 25.08 25.92 25.93 25.95 26.95 29.06 27.59 27.94 27.71 29.81 29.67 32.19 34.07 34.85 36.02 37.91 38.69 39.21 40.95 40.93 40.90 41.02 41.00 40.71 40.47 39.93 40.01 41.48
25.61 26.12 26.01 27.15 29.49 28.02 25.77 24.09 23.69 24.47 24.16 24.79 24.12 25.42 26.10 24.62 24.20 26.22 25.63 26.13 27.52 29.61 30.37 31.19 31.87 32.90 35.60 37.49 39.06 40.64 40.52 40.68 40.84 40.95 40.54 39.33 39.06 39.71
26.16 25.80 25.60 26.27 25.95 26.76 26.32 26.69 26.18 23.74 23.19 23.79 23.14 23.18 24.84 26.27 26.62 25.13 24.09 23.39 22.85 28.80 29.01 28.57 31.15 30.90 31.72 34.48 37.73 38.72 39.35 39.71 39.95 40.33 40.30 39.73 39.11 38.85
23.04 22.17 22.33 24.05 23.70 23.70 24.92 26.13 26.72 27.55 28.08 26.39 23.88 23.97 25.64 26.31 26.20 24.62 23.44 23.25 23.52 26.43 28.07 26.41 28.50 28.40 31.07 32.29 35.48 37.35 37.41 37.65 38.03 38.45 38.46 38.56 38.52 38.00
21.79 21.75 21.24 21.55 23.15 23.91 24.81 25.26 24.58 25.76 26.02 25.77 25.53 25.63 26.69 27.35 26.42 26.00 25.31 24.71 24.99 26.38 28.48 24.55 26.87 27.41 29.77 31.73 33.99 36.07 37.19 36.97 36.93 36.69 36.67 36.62 36.83 37.46
22.21 22.14 22.11 21.79 24.24 26.88 24.15 23.21 23.14 24.05 26.73 27.50 27.48 27.51 27.64 27.81 28.92 26.89 24.10 23.51 22.59 23.81 27.14 26.50 25.90 26.10 26.10 28.98 30.98 34.48 35.84 36.89 36.59 36.39 36.73 36.50 36.29 36.00
21.59 21.89 22.77 23.11 25.02 25.57 24.38 22.25 20.61 22.77 23.86 25.18 25.08 25.43 25.93 25.81 26.75 25.89 25.56 24.11 24.13 22.29 25.88 25.07 25.03 25.03 23.71 25.69 26.78 28.56 29.64 31.22 35.04 35.72 36.50 36.79 36.21 35.82
20.14 20.12 21.47 23.68 24.52 24.59 24.90 22.58 23.49 23.73 22.88 22.94 23.26 24.07 24.40 23.96 23.95 24.47 24.94 24.08 22.71 22.41 26.52 26.66 25.29 25.04 24.53 24.98 27.05 27.64 28.35 30.18 31.34 32.13 33.43 35.85 36.71 35.74
18.39 19.76 19.74 23.39 22.88 22.56 22.20 23.81 23.75 22.08 21.27 20.74 20.76 21.42 22.73 23.74 25.27 26.19 25.72 25.36 25.80 25.01 26.15 27.64 25.20 25.73 24.70 23.12 24.01 27.40 28.58 28.07 28.37 30.43 30.87 30.82 33.13 35.69
17.78 19.32 21.50 21.23 20.87 20.38 20.47 21.40 21.15 20.04 19.88 18.94 19.14 20.46 22.55 24.62 26.47 27.46 27.92 28.05 27.96 27.63 27.47 27.57 26.56 26.67 25.99 25.12 24.78 24.81 26.52 28.85 26.31 29.39 29.23 29.86 31.55 31.78
15.34 14.08 15.36 19.25 15.24 17.26 17.47 17.09 17.45 18.59 18.30 18.03 18.52 20.43 23.27 24.61 25.42 27.13 26.62 26.70 25.95 26.44 29.67 30.12 28.98 28.32 26.76 27.07 27.12 26.21 26.57 26.81 27.39 27.48 28.65 29.57 30.00 30.63
7.75 5.61 9.78 13.12 13.49 15.04 15.50 14.95 14.51 14.80 15.59 16.51 17.22 18.07 19.90 22.16 24.78 26.82 27.15 27.16 25.40 25.51 26.58 27.81 30.05 30.48 30.10 28.99 27.53 28.18 27.87 27.19 28.61 27.31 28.28 27.28 28.52 29.71
9.39 3.50 -0.43 0.98 9.69 12.83 13.50 12.95 12.19 11.11 12.43 14.84 15.62 16.32 16.70 18.27 21.20 23.58 24.50 24.16 24.41 24.92 25.06 26.22 27.40 27.44 27.81 28.82 31.39 28.50 28.39 27.53 28.43 28.45 27.55 27.30 27.86 28.92
6.48 3.97 -2.41 -1.87 3.56 13.01 13.60 12.73 11.78 10.72 10.28 11.95 13.23 13.91 14.83 16.97 18.76 20.17 21.07 21.23 21.45 23.34 23.51 24.55 25.22 26.78 24.80 23.12 25.17 29.92 28.13 28.33 28.94 28.24 28.54 27.35 26.91 28.27
8.29 5.74 3.63 3.48 7.06 10.92 12.54 12.15 11.22 9.21 7.48 7.49 9.59 11.23 12.50 14.52 16.10 17.32 18.24 18.03 19.13 20.44 21.01 22.67 23.15 23.52 23.67 23.19 23.20 25.22 27.53 27.24 26.90 26.92 26.23 26.62 28.60 28.93
8.44 9.18 5.20 5.52 8.02 8.61 2.76 4.18 6.76 7.59 6.45 4.40 5.93 6.99 8.03 11.99 14.37 15.41 14.39 12.51 14.42 17.92 17.38 18.41 20.92 22.02 23.44 24.36 23.42 23.41 21.94 24.87 25.65 26.01 25.19 24.51 23.76 24.95
7.41 8.86 9.89 7.92 5.90 5.03 -0.79 -3.50 2.42 5.87 8.07 8.09 6.52 5.67 6.41 7.93 10.99 11.35 12.03 12.08 13.48 14.28 15.63 18.35 21.76 23.14 23.65 23.06 20.92 18.71 20.75 22.41 24.18 25.42 25.75 24.84 24.22 21.86
8.18 8.28 7.57 3.18 0.22 -0.44 5.40 1.18 1.62 1.45 4.90 8.03 8.30 8.82 6.25 8.02 10.05 10.61 10.64 12.68 13.56 13.19 13.92 15.65 18.02 20.29 21.32 21.31 20.43 20.87 19.94 19.37 22.89 22.79 23.52 24.14 26.56 26.88

GFSNE_sfc_wetblb_009.txt.gz
Wetbulb
39.35 39.13 38.27 38.23 37.91 36.73 35.31 34.14 30.87 26.51 27.91 31.70 31.56 35.64 36.11 37.04 38.16 39.49 41.21 39.99 39.47 40.16 43.40 43.85 44.30 46.41 47.96 47.62 46.35 45.93 45.46 48.15 50.83 52.96 55.60 56.01 55.26 54.63
38.50 38.31 37.52 36.44 35.64 35.53 34.47 33.64 32.34 29.18 25.61 30.40 31.10 32.80 34.12 34.71 36.89 37.67 40.15 39.86 39.53 38.80 40.96 42.79 42.79 43.59 45.75 46.71 47.65 46.94 45.47 46.37 49.33 51.28 53.91 54.03 54.08 53.46
38.04 36.06 34.96 35.01 34.12 33.80 33.21 32.17 30.66 29.88 25.99 28.95 30.95 32.89 33.38 33.96 34.96 37.30 40.07 40.36 40.17 38.71 39.16 41.22 41.14 41.51 42.32 44.55 44.47 44.81 46.45 46.25 48.90 50.87 51.35 51.56 52.05 52.37
35.45 34.20 33.69 33.32 32.76 32.95 31.93 30.40 29.72 30.02 27.65 25.32 29.38 30.23 31.83 34.23 34.67 36.03 37.92 38.58 38.65 38.59 37.53 39.47 40.19 40.80 40.98 41.71 42.63 42.76 43.03 44.27 46.37 48.10 49.35 50.26 51.08 52.04
33.69 32.71 32.40 31.94 31.42 31.38 30.43 29.19 28.64 28.38 27.61 26.62 26.47 29.50 30.55 33.02 33.44 34.77 35.91 37.51 37.47 36.92 37.27 37.13 38.23 39.29 39.79 40.73 41.99 42.43 42.50 42.21 42.82 43.08 44.15 45.44 47.07 48.53
32.69 32.43 31.74 30.95 29.89 29.63 28.64 28.12 27.26 26.26 25.78 25.15 25.59 26.24 28.84 31.27 31.47 31.74 32.33 35.58 34.73 35.07 35.98 34.94 35.24 36.54 38.07 39.42 40.50 41.01 41.44 41.85 41.71 41.65 40.83 40.27 40.87 42.92
32.08 30.99 30.23 29.26 28.47 28.09 27.12 26.61 25.72 24.70 25.09 25.07 24.48 25.87 26.26 27.00 27.95 30.03 30.61 32.97 33.71 34.73 34.37 36.05 37.38 38.40 39.29 39.78 39.85 40.52 40.39 41.05 41.13 41.48 41.11 39.97 39.42 40.59
27.70 27.93 27.79 26.60 27.06 26.19 25.91 26.29 26.59 25.38 25.02 24.77 26.34 24.89 25.27 26.97 28.56 28.62 28.21 28.92 28.43 35.60 33.55 33.71 36.24 36.20 37.27 39.09 37.35 38.53 39.85 40.02 40.43 40.88 40.78 39.96 39.63 39.31
26.61 25.89 25.58 26.13 25.86 26.33 26.21 26.67 27.44 27.09 26.99 26.69 25.13 25.39 25.48 27.28 27.87 27.42 27.71 27.60 27.86 32.30 31.62 30.08 34.76 33.27 36.10 35.70 35.35 37.20 37.40 39.51 39.58 39.60 39.21 38.80 38.46 38.21
25.86 25.63 25.19 25.40 25.91 25.27 26.35 26.07 25.90 26.40 27.04 27.17 27.64 27.75 28.24 28.91 28.07 28.69 27.88 28.23 29.87 31.17 32.12 27.49 32.87 32.09 34.78 35.78 34.42 35.06 37.27 37.20 37.54 37.77 38.13 38.10 38.09 38.37
25.68 26.02 25.44 24.89 24.94 26.39 25.31 24.33 24.21 24.87 27.24 27.17 27.86 28.09 28.29 28.23 28.33 27.97 26.56 26.18 25.69 27.84 31.59 29.22 30.31 31.00 32.85 33.79 35.94 34.19 35.25 36.75 36.67 36.67 36.70 36.59 36.55 36.82
25.46 25.37 23.81 23.84 24.79 25.20 24.21 23.74 21.63 23.97 24.58 25.24 25.88 27.05 27.90 28.25 27.40 28.09 27.51 25.40 26.73 25.61 30.14 27.86 29.27 30.11 28.54 34.32 34.70 36.15 37.07 32.78 35.09 36.67 36.68 36.62 36.36 39.27
23.42 23.24 24.53 23.36 24.10 23.91 23.34 23.28 23.30 24.33 23.66 23.99 24.78 25.82 26.60 26.86 27.65 28.81 29.15 27.78 26.15 26.27 30.55 29.98 29.62 30.13 29.74 31.76 34.51 36.22 35.68 35.76 37.26 36.72 34.91 36.11 36.59 37.31
22.86 23.20 23.69 22.95 22.64 22.10 22.22 22.05 22.14 22.62 23.50 23.37 23.35 24.05 24.71 25.62 27.08 28.21 28.87 29.29 30.09 28.80 31.25 30.83 28.57 28.11 27.34 27.91 28.84 34.07 35.88 36.55 36.27 35.65 36.70 35.01 33.32 36.02
24.40 22.76 21.57 21.49 20.70 20.72 20.50 20.33 19.94 21.62 21.55 21.15 21.50 22.92 24.58 26.32 27.80 28.47 29.88 30.04 29.61 30.08 29.66 30.38 29.28 29.22 29.08 27.64 27.57 30.23 31.31 34.44 35.90 35.60 36.27 36.62 36.34 37.41
22.47 22.45 20.07 20.04 18.78 19.22 20.46 20.54 20.03 19.54 19.33 20.30 21.02 22.86 25.14 26.49 28.02 30.17 29.09 29.90 28.58 28.60 30.34 31.06 30.40 29.66 27.87 27.88 27.87 27.90 29.48 29.82 34.60 34.63 35.41 35.43 34.06 35.38
20.66 21.65 20.95 20.11 19.73 19.67 19.91 19.30 18.86 18.11 18.41 19.51 20.76 21.72 22.80 24.57 26.08 28.34 28.68 29.30 28.78 29.03 29.76 31.13 32.12 32.10 31.27 30.33 28.64 29.41 29.46 30.20 31.76 31.94 31.69 32.00 34.49 36.00
21.94 20.75 19.53 18.52 18.20 18.47 18.35 17.88 18.37 16.00 16.90 18.36 19.81 20.52 21.15 22.74 23.88 26.04 27.00 27.43 27.37 27.90 28.54 29.46 30.91 30.36 30.06 30.96 32.19 30.96 31.09 30.57 30.57 30.92 30.86 29.94 31.69 34.55
22.26 21.68 20.31 19.59 18.61 18.68 18.39 18.08 16.85 16.79 15.47 17.30 18.58 19.01 19.76 21.42 23.02 23.60 24.63 25.13 24.96 25.97 26.76 28.56 28.78 29.07 27.53 26.95 29.25 30.23 30.70 31.26 31.32 31.17 31.49 30.46 29.74 31.59
22.29 21.84 21.36 21.06 19.93 18.97 18.52 17.79 17.46 16.72 15.70 15.36 17.43 17.86 18.34 19.90 20.94 21.56 22.22 21.93 23.34 24.24 25.38 27.29 27.12 26.72 26.50 27.01 28.49 29.53 28.22 31.36 31.20 31.11 30.07 30.72 31.00 29.25
24.13 22.96 23.14 21.82 21.03 20.40 19.40 17.92 16.76 16.79 15.30 14.69 16.11 16.46 17.10 18.42 19.28 19.98 20.88 19.18 19.86 21.82 21.76 23.46 25.82 25.04 27.63 29.10 27.73 28.04 29.42 26.13 28.75 30.40 29.92 28.71 27.92 28.57
25.10 24.29 24.00 23.13 22.21 20.99 20.34 18.67 17.76 17.86 16.80 16.21 15.25 16.32 16.58 17.37 17.56 18.19 19.38 19.83 20.18 20.53 20.95 23.47 25.74 27.07 27.28 26.67 26.32 25.71 27.88 28.34 26.91 26.36 26.36 26.77 28.89 26.11
26.04 25.60 25.33 24.10 22.97 21.31 19.94 19.71 17.68 17.77 16.56 15.72 15.90 16.34 16.21 15.75 16.72 18.18 18.70 19.25 19.06 18.86 19.94 21.37 23.71 25.48 25.76 25.37 24.70 26.69 24.46 25.77 27.68 27.67 28.55 24.89 26.80 26.82

GFSNE_sfc_wetblb_012.txt.gz
Wetbulb
41.10 40.78 39.88 39.87 39.79 39.09 38.40 37.31 33.67 29.38 30.59 34.76 34.53 38.43 38.49 38.54 38.35 38.51 38.87 39.54 40.35 39.84 39.28 40.28 43.52 44.61 45.40 47.18 48.35 46.83 46.45 48.26 50.83 52.97 55.39 57.15 57.40 57.89
40.34 39.74 39.54 39.21 38.92 38.81 38.11 37.26 35.91 32.97 30.55 33.88 34.68 36.46 37.30 36.84 38.44 38.87 38.90 38.58 38.50 39.39 38.85 39.13 42.00 42.40 43.07 44.25 46.82 47.55 47.18 47.00 47.52 50.81 53.26 55.48 56.09 56.03
40.07 39.44 38.79 38.80 37.96 37.86 37.67 36.71 35.24 34.24 30.25 32.88 34.55 35.82 35.06 35.08 36.28 37.32 38.93 39.29 40.12 39.40 39.09 38.27 40.30 40.93 41.32 41.97 43.68 45.77 46.76 46.49 46.66 49.49 51.28 53.90 54.84 54.81
38.79 38.54 37.62 37.42 37.12 37.23 36.18 35.28 34.27 34.13 30.39 28.41 31.51 31.59 32.34 34.02 35.13 35.32 36.12 38.05 39.62 39.86 37.91 37.82 37.85 39.87 40.26 40.40 41.52 42.79 43.37 44.38 43.87 45.31 49.38 50.72 52.33 53.03
38.08 37.26 36.78 36.40 35.28 35.20 34.65 33.67 32.61 31.21 31.39 29.72 28.67 30.33 31.60 32.77 32.46 34.67 34.97 36.28 38.35 38.92 37.58 37.31 37.37 38.39 38.82 39.68 40.52 42.25 42.50 42.14 42.41 43.21 44.97 46.76 48.20 49.99
37.61 36.91 36.02 34.68 33.33 32.57 31.57 31.46 30.31 30.01 29.75 28.42 27.18 28.13 30.23 32.13 32.32 31.15 32.63 35.41 35.70 37.75 38.04 35.87 35.66 37.49 38.16 39.17 40.47 40.97 41.22 41.55 41.79 42.15 42.45 42.72 43.53 45.42
35.78 34.68 33.84 31.50 28.48 28.54 28.82 29.15 28.19 27.31 26.50 26.77 26.81 27.75 27.55 28.37 29.08 30.95 30.47 31.79 33.97 36.42 36.51 36.44 37.82 38.41 40.04 39.85 40.21 39.31 40.35 40.90 41.44 41.78 41.39 42.03 41.54 42.22
32.74 32.57 32.57 30.32 29.93 27.36 27.53 27.22 27.44 26.34 25.79 25.87 26.67 25.54 26.38 28.78 29.90 29.71 29.37 29.06 27.81 35.58 34.91 33.71 37.54 36.20 38.00 39.13 37.62 37.83 38.02 40.07 40.68 41.45 41.52 40.77 40.51 39.78
31.64 30.96 30.47 30.40 29.45 29.49 28.02 27.78 28.43 28.36 27.85 27.81 25.13 26.02 27.11 28.94 29.27 28.42 28.46 29.01 28.93 31.79 32.55 30.64 35.25 33.92 37.09 38.40 35.37 36.80 36.90 38.49 39.51 39.82 39.82 39.49 38.95 38.76
31.09 30.31 30.09 29.76 29.53 27.05 27.14 28.02 28.79 29.78 29.44 28.76 28.09 28.62 29.25 30.00 29.74 29.45 29.00 29.09 30.74 31.91 33.40 28.19 33.34 33.25 35.32 37.51 34.78 34.42 36.45 35.39 38.27 38.81 38.77 38.38 38.24 38.50
30.33 30.14 28.65 28.31 26.59 25.74 26.23 25.61 26.77 27.98 28.87 28.07 27.73 27.79 27.99 28.29 28.94 29.28 27.01 26.17 26.93 29.21 33.08 31.14 31.86 32.39 33.54 35.67 37.22 34.47 35.14 35.71 35.19 36.16 37.01 37.90 38.71 38.53
29.97 29.10 26.18 25.60 24.14 24.95 24.85 24.58 23.65 25.20 25.40 26.29 27.33 27.92 28.54 29.03 28.51 29.74 28.06 25.54 26.47 27.38 31.97 29.97 30.58 31.20 29.39 35.36 36.37 37.35 37.10 35.39 35.45 35.27 36.89 36.94 36.70 40.83
28.22 28.18 28.28 24.76 24.17 23.98 23.44 24.72 23.50 24.10 24.25 25.38 25.90 27.51 28.94 29.01 29.58 30.46 30.64 28.75 26.48 27.03 31.50 32.05 30.77 30.75 30.66 32.50 35.35 36.38 37.51 37.65 38.12 37.19 36.08 36.22 36.59 36.85
26.77 28.39 27.31 23.81 23.42 23.00 23.10 21.79 21.95 22.94 25.07 24.79 25.21 25.76 26.95 27.63 29.15 30.48 31.48 31.21 31.62 29.87 32.24 32.36 30.23 30.04 30.11 30.40 30.97 35.43 35.97 37.86 38.68 38.43 39.46 37.55 35.71 35.98
27.98 26.11 23.30 22.65 22.99 23.85 22.38 21.63 22.12 24.72 23.61 23.18 23.30 24.15 26.13 28.43 29.71 30.41 31.29 31.64 31.95 31.45 31.61 32.21 31.53 30.86 30.59 29.11 29.10 31.88 33.01 35.09 36.88 37.27 37.95 38.17 38.04 38.54
27.74 27.75 25.22 22.35 23.48 23.85 25.04 25.07 24.76 23.61 22.33 22.71 23.15 24.96 27.23 28.34 29.39 30.73 31.14 31.57 30.36 29.92 31.25 31.37 31.00 30.68 29.01 29.97 29.74 29.77 32.62 32.09 35.77 35.95 36.70 36.74 37.69 38.85
25.23 27.41 27.14 25.99 25.12 25.39 25.43 24.68 24.65 23.20 22.23 22.90 23.65 23.93 25.05 26.35 27.31 29.72 29.64 30.72 30.14 30.67 30.90 31.26 31.48 31.81 31.64 31.08 29.39 30.28 30.08 30.20 33.17 34.75 34.68 33.12 35.28 37.04
25.76 26.15 26.49 25.89 24.82 24.17 24.01 23.82 24.34 22.26 21.50 21.92 22.50 23.51 23.28 23.89 25.17 27.33 28.51 28.83 28.62 29.48 30.13 31.64 32.50 31.09 30.71 31.88 32.47 32.05 31.92 31.69 33.39 32.36 32.48 30.92 32.11 35.56
25.54 26.50 25.95 26.13 25.67 24.71 24.18 23.63 23.00 23.05 20.88 21.14 21.82 22.25 22.73 23.28 25.00 25.34 25.92 26.40 26.87 27.73 28.82 30.50 30.46 30.11 28.15 26.74 31.09 30.90 31.18 32.74 32.53 31.33 32.06 31.71 31.32 33.39
26.68 26.25 26.02 26.11 26.19 25.30 24.68 23.62 22.98 22.89 22.58 21.21 20.60 21.64 22.35 22.43 23.03 23.49 24.51 23.79 24.09 25.46 26.46 28.73 29.58 28.03 26.66 26.29 29.49 30.38 28.48 33.43 32.84 32.40 32.14 33.79 33.67 29.58
27.94 27.50 27.70 26.90 26.37 26.43 25.67 24.52 22.81 22.36 21.10 20.97 21.31 20.55 21.36 21.51 22.15 22.63 23.05 22.60 22.80 23.99 23.36 24.96 27.53 26.79 29.44 30.52 29.17 29.68 30.90 28.01 29.89 32.46 33.13 31.06 29.94 30.25
29.13 28.29 28.32 28.19 27.43 26.68 26.16 25.21 23.95 23.17 22.70 21.91 21.59 21.78 21.94 20.96 20.50 21.35 22.52 22.33 22.84 23.27 23.57 25.54 27.83 28.17 28.36 28.03 28.87 28.15 28.59 29.48 27.86 27.42 27.80 27.28 29.79 28.49
31.29 29.54 29.21 28.81 28.01 26.84 25.80 25.21 24.11 23.62 22.74 21.36 21.39 21.33 20.99 20.80 20.73 20.70 21.43 21.96 22.26 21.84 22.96 23.41 26.29 28.11 28.11 27.50 26.58 29.31 27.60 27.58 29.12 28.31 29.05 26.18 27.47 27.36

GFSNE_sfc_wetblb_015.txt.gz
Wetbulb
41.96 41.47 40.52 40.29 40.22 39.43 38.81 37.59 35.35 30.65 31.18 35.89 36.58 39.52 39.71 40.08 40.12 39.75 39.71 40.12 39.83 39.31 39.05 39.39 39.89 42.23 43.24 43.58 44.52 46.21 48.88 48.61 48.47 50.41 53.45 55.05 56.71 57.49
41.11 40.55 40.21 40.28 39.86 39.21 38.09 38.20 37.38 34.72 31.30 35.75 36.12 37.64 38.19 37.43 38.49 38.73 38.53 39.45 38.73 39.42 38.67 38.74 38.49 39.83 40.96 41.89 42.65 43.72 46.50 47.98 48.07 47.89 48.61 51.81 53.93 56.34
40.57 39.79 39.51 39.66 38.55 38.28 38.98 37.94 36.91 36.25 32.56 34.98 36.18 36.40 35.44 35.26 35.55 37.39 37.71 38.21 39.03 39.20 39.29 38.95 38.40 38.41 39.01 40.45 40.93 41.89 43.10 45.36 46.87 47.45 46.96 47.44 51.73 55.16
39.24 39.15 38.26 38.27 37.54 37.91 37.15 35.70 35.54 35.40 33.90 30.31 32.65 32.88 32.94 34.01 34.88 34.68 35.56 36.56 37.82 38.16 39.37 38.67 39.06 38.58 38.89 39.59 40.22 40.83 41.97 43.12 43.91 45.42 46.25 46.04 48.29 53.38
39.15 38.17 37.70 37.13 35.79 35.50 34.84 33.70 33.33 33.11 32.83 29.93 29.04 32.01 32.63 33.08 32.93 34.05 33.95 35.19 36.53 38.57 37.99 37.64 38.34 37.92 38.54 39.39 40.17 40.77 41.68 42.16 42.23 42.53 42.65 43.75 45.34 49.60
38.66 37.78 36.63 35.39 33.92 32.49 30.94 30.84 31.09 29.96 29.56 28.70 28.07 28.51 30.23 31.98 32.63 30.62 30.78 34.03 33.87 36.13 36.86 37.70 38.29 38.68 39.39 39.37 39.83 39.58 40.58 41.08 41.91 41.72 41.54 42.02 42.11 44.91
37.02 36.58 35.61 32.85 29.81 29.43 29.08 28.97 28.38 27.24 26.68 26.15 25.88 27.20 27.55 28.71 28.13 30.76 29.79 31.33 32.55 34.81 34.99 36.72 36.72 38.23 39.14 39.55 40.13 38.49 38.12 39.51 40.48 41.48 41.59 41.25 41.79 43.41
34.61 34.59 34.27 33.73 32.53 30.46 29.78 28.91 28.38 26.53 25.78 25.70 25.56 25.16 25.90 27.39 29.20 29.58 29.10 27.82 26.22 34.61 32.55 32.62 36.41 36.55 37.63 38.87 36.94 37.65 36.95 38.57 39.80 40.82 41.09 40.78 40.48 40.86
33.88 32.87 32.37 32.63 31.40 31.48 30.10 29.55 29.46 30.11 29.64 28.68 25.99 26.38 26.60 28.05 28.13 27.77 28.00 27.97 27.86 31.23 31.42 29.72 34.33 33.86 36.95 37.54 36.62 37.07 36.56 36.60 38.82 40.55 40.35 40.27 39.82 39.04
33.20 32.54 31.72 31.18 29.61 27.39 27.08 27.11 28.07 29.11 29.84 29.48 28.59 27.85 28.10 28.29 27.67 27.73 27.48 27.98 29.55 31.02 32.35 27.42 33.10 32.87 35.91 37.43 35.64 35.51 36.90 35.55 36.56 38.54 39.82 39.48 38.92 39.30
32.49 32.35 30.67 29.26 26.90 25.89 25.46 25.11 26.11 27.33 30.13 29.55 28.64 28.50 28.78 28.83 29.02 28.12 26.47 25.63 25.46 27.18 31.87 30.50 31.28 32.17 34.01 35.33 37.69 35.28 36.59 36.30 34.31 36.62 37.20 38.70 38.77 38.36
31.54 31.59 28.10 26.56 24.90 25.00 24.68 23.94 22.96 25.16 24.87 25.40 26.26 27.98 29.54 29.94 30.46 29.59 28.18 25.32 25.48 25.78 30.54 29.45 30.52 31.11 29.06 34.98 36.36 37.78 36.37 35.90 35.49 34.73 36.17 36.71 36.31 40.33
29.18 29.67 30.67 26.72 25.35 24.82 24.69 24.24 23.68 23.66 23.84 25.36 26.20 27.30 28.39 29.73 30.48 30.95 30.91 29.37 27.11 26.06 30.96 30.38 29.83 30.35 30.40 30.49 34.25 36.84 37.40 36.32 37.08 35.96 35.67 36.13 36.03 35.95
28.17 29.62 29.46 26.14 24.90 24.32 24.66 24.23 23.49 23.61 26.62 25.12 25.47 25.79 26.20 27.02 28.96 30.43 31.21 31.62 31.91 30.21 31.47 31.37 29.78 29.77 29.48 29.96 29.89 34.44 36.88 37.94 38.52 37.21 37.02 37.01 36.13 35.36
29.53 28.84 26.18 26.25 25.35 25.89 26.05 24.54 23.75 26.13 24.45 23.42 23.47 24.63 26.22 28.38 29.97 31.32 32.62 32.62 32.15 32.44 31.90 32.08 31.59 30.75 30.15 28.68 28.70 31.37 31.97 35.06 38.70 38.10 38.95 38.33 37.78 38.27
29.26 29.79 28.19 26.88 26.51 25.25 26.26 27.85 27.22 26.41 23.56 23.34 23.36 25.30 27.51 27.88 28.26 30.21 29.89 30.67 31.57 30.70 32.26 32.28 31.97 31.58 29.22 29.76 29.91 29.95 32.38 31.31 36.00 36.78 38.10 38.19 39.06 40.07
27.57 28.60 28.41 28.49 27.01 27.21 27.44 27.28 27.08 26.46 24.56 23.59 23.51 23.98 24.59 25.69 26.52 28.81 29.02 29.64 29.34 30.15 30.58 30.60 31.52 31.77 31.65 30.06 28.57 29.95 30.51 32.30 33.98 34.78 35.11 34.45 36.01 37.33
26.99 26.91 27.47 27.81 26.99 26.11 26.19 25.85 26.40 25.53 24.94 23.04 23.26 23.34 22.95 23.52 24.50 26.80 27.65 27.43 27.28 28.40 29.38 31.34 31.12 29.13 29.46 30.95 32.46 30.43 31.29 31.08 32.73 33.84 33.64 32.38 32.58 36.15
25.58 26.81 27.82 28.21 27.26 26.78 26.68 26.24 25.12 25.52 24.46 24.57 23.02 22.76 22.81 23.36 24.16 24.86 25.46 25.83 25.22 26.41 27.80 30.04 29.98 29.43 27.59 25.47 31.75 32.32 30.81 33.30 33.26 32.42 32.93 31.65 31.26 33.52
27.38 27.48 27.69 28.13 27.58 27.31 26.95 26.21 25.79 25.33 24.71 23.61 23.24 23.32 22.74 22.05 23.02 23.16 23.85 23.62 23.87 24.59 25.51 27.64 28.94 26.77 24.94 25.78 28.39 30.00 29.07 30.67 33.16 32.16 31.87 33.69 33.11 29.89
28.75 29.48 30.70 29.74 28.46 28.21 28.30 27.27 26.00 24.55 24.04 23.12 23.33 23.11 23.05 22.40 21.50 22.05 23.15 23.12 23.65 24.11 22.79 24.15 26.56 27.45 28.83 30.57 28.33 28.69 29.51 29.22 30.30 30.94 32.57 31.88 30.24 30.88
30.10 29.88 30.37 30.31 30.26 28.88 28.61 27.91 26.30 25.99 24.72 24.26 23.80 23.55 23.47 22.86 22.21 20.77 21.87 22.09 22.71 22.97 22.97 25.48 27.99 28.67 28.40 27.52 27.33 28.08 28.83 29.77 28.78 28.60 28.22 28.31 28.72 28.21
31.94 31.55 31.63 31.83 31.96 30.04 28.20 27.17 26.37 25.72 24.78 23.81 23.53 23.26 22.39 21.43 22.95 22.99 21.59 21.45 21.86 21.64 22.15 23.11 25.61 28.21 28.20 27.28 26.53 29.06 27.68 27.89 28.52 28.00 28.06 27.63 27.82 27.96

GFSNE_sfc_wetblb_018.txt.gz
Wetbulb
38.62 39.34 36.74 36.61 35.91 35.74 34.40 32.89 29.46 26.13 27.54 31.25 31.53 34.12 34.34 33.88 35.40 35.00 34.57 37.78 39.02 38.89 38.89 39.95 40.83 40.42 40.17 41.30 42.51 43.92 44.20 45.11 48.02 49.14 48.86 49.77 52.70 55.32
38.22 38.14 36.84 36.11 36.21 35.13 34.59 33.80 32.65 30.82 27.17 31.25 31.98 32.28 32.72 34.70 35.54 33.90 33.86 37.25 37.24 37.77 38.42 38.94 39.95 40.56 39.82 40.33 40.97 41.76 42.47 43.65 45.31 47.89 48.42 48.45 48.76 50.79
38.93 36.87 36.52 36.35 35.90 33.64 33.42 33.12 32.20 30.80 27.45 29.63 31.62 31.37 30.72 30.72 32.18 33.00 33.72 33.07 33.77 37.74 38.38 38.48 38.96 39.15 39.24 39.27 39.40 39.94 41.40 42.56 43.51 45.57 47.30 48.18 48.37 49.01
37.60 36.23 35.38 37.35 33.55 32.95 32.24 30.02 29.68 29.44 27.54 25.48 28.29 28.58 28.67 29.96 30.24 30.30 32.83 34.52 33.25 36.39 37.73 37.91 38.72 38.95 38.92 39.24 38.99 39.73 41.00 41.71 42.47 43.45 44.07 45.57 47.08 47.58
35.75 34.94 34.60 34.05 30.74 29.63 28.23 27.06 27.52 29.51 27.38 25.45 25.05 27.49 27.67 28.76 28.75 30.10 30.87 31.27 33.98 36.56 36.65 37.16 37.51 38.91 38.89 39.13 39.32 39.92 39.97 40.79 40.87 41.54 41.91 42.26 43.68 45.20
35.98 34.75 33.86 31.91 28.12 26.43 26.66 24.98 25.98 24.35 24.84 24.18 24.18 24.58 25.35 27.27 27.33 26.97 26.34 29.07 29.48 33.21 35.18 35.81 37.05 38.09 38.07 38.62 39.02 39.33 38.75 39.20 40.34 40.77 41.19 40.89 40.98 43.17
33.68 34.07 32.01 31.49 30.65 28.17 26.55 24.33 23.99 22.95 22.93 22.62 22.68 23.43 23.85 23.29 23.20 26.08 25.87 26.93 28.13 29.55 31.21 32.07 33.62 35.44 35.77 37.52 38.69 38.03 37.58 38.25 39.25 40.22 41.20 40.69 41.51 42.79
30.58 30.37 30.50 32.86 31.41 30.33 31.40 30.93 27.87 23.00 22.40 22.18 22.55 22.18 22.84 24.21 25.46 25.38 24.13 24.08 22.99 29.05 28.66 27.58 32.52 32.77 33.95 36.54 36.97 37.53 36.58 37.40 38.63 38.98 40.82 40.95 39.73 39.60
29.72 28.52 29.28 31.61 29.15 26.51 27.91 27.97 27.22 29.13 29.52 25.62 23.73 24.38 25.38 24.68 24.48 22.45 22.01 22.13 22.49 25.85 25.58 24.04 29.19 29.19 32.86 36.19 35.80 37.18 35.71 35.83 37.52 37.74 39.99 39.73 39.07 38.34
28.91 28.20 27.27 26.25 24.28 24.79 23.63 23.14 24.01 24.85 25.57 27.23 23.37 23.04 23.95 25.01 24.75 24.94 23.86 23.68 24.47 25.70 26.51 22.23 28.02 27.25 31.77 32.76 36.54 36.72 35.94 35.58 36.56 36.87 39.80 39.39 39.24 38.93
29.84 29.30 27.99 25.59 26.20 26.78 23.26 22.46 22.10 22.95 28.28 27.28 26.94 27.83 29.09 29.67 29.49 26.40 23.35 22.24 20.60 23.33 25.86 26.65 26.87 27.64 27.97 27.38 29.72 35.94 36.63 35.72 35.43 35.19 38.59 38.59 38.57 38.02
27.70 27.76 27.91 25.26 25.75 25.66 22.20 21.36 19.79 21.54 21.14 21.72 23.33 25.90 27.28 27.92 30.67 29.54 26.25 23.00 23.52 21.90 25.33 26.62 27.55 27.60 22.54 25.27 27.34 27.37 28.14 35.65 35.22 33.79 35.69 38.72 38.22 38.24
25.77 25.47 26.31 26.78 26.50 26.53 25.36 22.32 21.26 22.53 22.56 22.09 24.00 24.39 26.22 26.32 26.59 27.67 28.51 28.28 26.15 24.91 28.08 27.26 25.97 26.72 25.55 26.66 30.39 32.49 29.46 31.12 33.60 34.77 33.52 36.10 36.38 37.61
25.41 25.63 26.07 27.95 27.47 26.56 25.12 25.59 25.81 23.87 20.26 18.90 21.62 22.96 23.58 23.89 25.72 27.02 28.78 31.17 30.38 28.09 29.28 28.70 25.43 25.05 25.64 26.26 27.84 31.43 30.48 30.78 33.42 34.30 33.33 35.34 35.80 34.77
25.37 27.63 28.38 27.94 28.18 26.35 28.02 26.53 22.69 20.72 19.03 14.82 18.67 22.23 23.08 25.50 26.25 26.82 27.81 29.36 31.78 31.33 31.14 29.39 26.43 26.76 25.36 25.08 27.00 28.36 29.40 29.47 32.64 33.52 34.47 32.95 33.45 32.97
26.03 26.79 24.96 24.89 22.41 23.17 22.41 25.49 24.13 22.28 20.37 17.28 16.30 20.57 23.27 24.26 23.59 25.54 25.33 26.27 26.84 28.97 30.49 29.48 28.51 27.23 22.77 23.97 24.79 22.93 24.96 26.98 30.57 31.21 33.46 34.17 32.77 32.52
22.72 21.49 21.10 23.02 23.50 23.14 22.59 22.81 23.14 22.88 20.26 17.32 15.85 18.87 20.85 22.67 22.74 23.88 25.49 25.55 24.87 25.30 28.58 27.82 28.49 28.03 26.69 26.60 20.88 22.74 23.07 24.82 31.26 30.95 29.78 28.24 30.39 29.87
21.75 19.10 17.90 19.59 20.23 21.64 19.25 19.93 19.98 19.69 20.57 18.63 16.86 16.98 18.33 20.05 21.29 22.79 25.15 24.36 23.12 23.54 24.52 27.83 30.21 26.91 25.81 25.75 29.38 24.07 26.98 23.08 24.34 27.68 28.49 26.12 25.24 27.23
19.14 19.33 20.15 20.87 24.53 23.02 20.62 20.37 18.18 18.68 18.52 19.87 16.84 15.94 16.06 18.86 19.80 21.40 22.25 23.22 21.95 22.57 24.23 25.27 28.13 25.44 24.34 24.01 29.05 31.55 25.16 30.75 28.49 22.57 24.11 22.84 22.50 26.74
23.74 23.21 23.12 22.47 22.63 22.56 21.65 20.37 19.18 17.49 16.98 17.75 14.08 16.81 15.04 16.19 16.24 19.30 19.69 20.18 20.51 21.84 23.05 24.27 24.70 23.29 20.89 22.20 24.77 26.36 29.78 25.53 28.18 26.04 22.49 23.18 24.53 30.08
25.47 25.28 25.12 24.95 25.33 22.91 19.91 19.16 18.33 16.21 15.59 11.89 15.28 18.76 17.41 17.79 15.99 16.09 18.30 18.14 18.54 21.59 20.17 21.15 23.62 25.82 26.17 25.22 24.11 25.74 24.89 29.60 29.72 26.24 27.86 25.76 23.69 22.90
26.38 26.20 26.04 24.88 24.54 24.18 22.74 21.31 21.05 17.20 19.23 18.61 16.45 14.29 17.76 13.53 13.64 16.10 13.76 16.44 18.34 17.55 19.69 21.47 24.89 26.49 26.95 26.51 25.24 25.38 24.91 25.04 27.08 28.76 28.83 28.84 24.61 21.33
28.25 28.10 27.79 27.22 26.86 26.21 24.00 23.21 19.88 17.90 18.97 15.56 15.12 14.83 13.30 10.96 15.45 18.63 16.45 15.54 19.05 17.93 16.82 17.35 22.37 25.03 25.70 25.77 23.49 26.53 22.28 22.03 23.35 22.95 21.43 28.26 28.57 28.66

GFSNE_sfc_wetblb_021.txt.gz
Wetbulb
37.39 35.64 35.56 35.24 34.88 33.59 32.61 31.07 28.85 22.13 25.53 28.23 27.69 31.67 31.40 31.90 33.38 32.30 31.78 35.91 37.64 37.79 37.55 37.81 38.32 39.08 39.50 40.19 41.10 41.25 41.88 43.08 43.66 44.69 45.52 47.48 49.28 50.05
38.24 35.39 36.30 36.14 35.27 33.75 31.29 31.48 30.39 26.67 22.51 27.13 27.35 28.59 29.58 32.49 33.46 32.13 31.61 35.75 35.42 36.65 37.16 38.08 38.54 38.41 38.68 39.23 40.24 40.46 41.14 41.51 42.60 43.87 44.63 45.99 47.89 49.20
37.13 35.76 34.74 35.84 32.99 31.45 31.03 29.68 27.81 26.07 22.15 25.00 27.01 27.72 26.84 27.50 29.53 30.07 31.73 31.14 31.78 35.60 37.01 37.46 37.56 37.99 38.13 39.19 39.23 39.63 39.92 39.95 41.24 42.73 43.81 45.08 46.76 48.49
35.21 34.65 33.41 35.56 31.50 29.71 27.32 25.26 24.59 24.67 23.22 21.83 24.13 25.02 24.90 26.45 27.33 26.96 30.29 32.44 31.48 34.46 36.18 36.58 37.11 37.26 37.95 38.13 38.77 39.35 39.53 39.58 40.74 41.15 41.99 43.44 45.16 46.05
34.73 33.70 33.38 31.99 27.07 25.63 24.97 23.71 23.48 26.34 23.11 21.29 22.20 24.29 24.39 25.31 25.87 27.27 27.67 28.19 31.26 33.94 33.94 35.16 35.79 36.10 36.54 37.19 37.87 38.77 39.19 39.69 39.71 40.13 40.71 41.19 42.27 43.26
33.86 32.64 31.41 28.22 26.23 24.76 24.95 23.20 24.06 22.22 22.21 21.52 21.82 22.43 23.50 25.07 24.97 22.91 24.25 27.07 26.79 30.32 32.16 33.74 34.04 34.98 35.44 36.36 37.60 38.67 39.01 38.63 38.78 38.51 40.02 40.15 40.25 41.75
30.88 31.07 29.58 30.17 32.10 27.70 25.61 22.70 22.60 21.75 21.39 21.31 21.04 21.86 22.24 22.51 22.52 25.05 23.62 23.76 24.38 26.19 27.20 27.56 28.69 30.12 32.80 34.75 36.31 37.92 37.16 37.37 37.78 38.74 39.39 40.37 40.36 40.77
28.66 28.07 27.82 29.92 30.65 30.89 29.73 29.04 26.90 22.17 20.89 20.19 21.51 20.92 21.96 23.01 25.57 22.60 21.35 20.23 18.38 24.65 24.06 23.92 26.88 26.49 30.69 33.01 36.09 36.66 36.74 36.51 37.26 38.48 38.33 40.28 38.84 38.81
27.34 26.29 27.41 29.23 26.53 24.74 25.56 26.08 25.43 27.05 27.03 23.01 20.91 19.75 19.50 21.44 21.88 21.47 21.24 20.88 20.43 23.42 23.56 22.08 24.69 24.64 29.97 32.91 35.10 36.59 36.34 36.49 36.72 37.52 37.40 39.46 38.28 37.75
26.95 26.52 25.45 23.71 24.38 24.47 22.89 22.04 22.16 22.77 23.50 24.43 20.84 20.35 21.36 23.16 23.19 23.97 23.42 23.11 23.69 24.49 23.94 20.32 24.15 24.63 28.75 30.90 33.53 36.01 37.01 35.67 36.22 36.78 36.71 38.46 37.96 37.67
28.22 27.77 27.06 24.06 26.68 26.63 23.27 21.87 21.09 21.91 25.91 26.93 26.54 27.22 27.97 28.89 28.66 27.32 25.04 23.94 20.12 22.00 24.34 22.68 23.37 24.80 26.80 27.82 29.33 33.97 36.34 35.21 35.32 35.53 35.82 36.62 37.75 36.52
26.29 26.07 28.41 24.39 26.33 26.37 22.40 20.25 18.89 20.34 21.22 21.64 22.21 23.67 25.71 26.03 29.28 26.18 26.02 23.84 23.14 22.15 24.42 23.75 24.04 24.71 22.90 24.01 24.90 25.91 26.89 34.05 34.33 35.29 35.18 35.96 37.86 37.56
25.14 24.30 24.54 27.11 26.99 28.11 27.40 21.79 20.28 22.58 23.01 21.77 21.47 22.18 23.31 24.26 25.00 25.87 26.39 26.13 25.09 25.34 27.73 26.12 23.93 23.62 25.34 25.37 25.43 27.77 29.75 31.69 32.75 34.49 34.53 34.21 37.12 38.15
24.38 24.64 24.22 29.23 28.79 28.49 27.11 26.83 26.84 25.28 15.43 16.84 17.60 19.11 20.63 21.73 23.75 25.25 26.08 26.61 27.49 27.98 31.05 28.57 24.39 23.75 20.57 22.81 24.99 29.00 31.09 27.35 31.66 33.45 32.41 33.47 33.82 35.62
23.84 25.12 28.20 29.30 28.75 27.56 28.80 28.40 24.36 20.04 15.09 10.92 14.63 16.31 18.83 22.39 24.19 24.28 25.66 26.33 27.43 28.25 30.45 30.67 26.51 25.90 23.16 24.27 24.48 26.73 27.81 30.54 31.96 33.29 32.05 31.87 31.87 31.85
24.36 24.51 23.23 24.23 21.23 22.21 22.17 24.41 23.14 20.87 19.38 14.39 13.97 15.77 18.66 19.40 20.01 22.24 22.04 23.80 23.82 24.66 28.79 29.62 28.02 26.91 21.55 22.89 25.16 25.47 26.48 26.75 30.61 31.98 32.74 31.87 32.05 31.87
18.28 18.99 19.47 18.28 19.87 22.05 20.71 21.01 20.42 19.83 17.33 12.99 12.25 13.48 16.64 18.84 19.90 21.81 22.41 23.37 20.20 21.37 24.18 26.62 30.36 28.18 24.37 25.62 20.80 23.98 23.59 24.24 29.51 31.54 30.84 31.46 31.87 32.23
25.22 18.66 14.32 12.67 15.19 19.63 18.43 18.60 16.08 16.76 17.28 16.09 11.52 14.13 14.12 14.35 17.96 20.49 22.39 22.09 20.88 21.54 21.53 24.86 24.44 25.46 27.61 25.67 28.39 24.12 21.05 22.36 24.71 28.08 30.29 27.92 29.66 31.36
16.66 16.40 13.08 14.19 16.04 21.12 20.69 19.08 15.77 15.21 15.76 15.08 12.28 10.56 11.82 14.48 14.85 18.03 19.61 19.77 19.84 20.80 21.93 23.56 22.10 18.73 18.30 17.99 26.74 29.89 20.49 24.55 27.73 24.37 24.33 25.15 24.94 29.56
19.81 19.31 18.27 18.63 20.27 21.89 21.24 19.52 16.21 12.73 13.21 12.90 8.97 6.05 6.51 10.95 10.83 14.11 16.96 14.35 17.71 20.53 20.94 22.21 22.29 21.71 17.50 14.71 20.81 23.70 29.82 20.85 22.86 27.25 21.06 21.73 26.91 29.29
23.11 22.37 22.09 22.21 22.17 22.68 21.59 18.65 13.89 10.21 8.76 5.79 6.43 7.48 7.43 10.57 9.84 14.21 12.60 15.01 15.59 19.14 17.85 18.66 20.87 24.44 25.80 22.06 19.66 23.16 20.30 29.58 27.98 28.20 26.96 21.83 20.93 20.92
24.86 24.47 24.66 24.60 24.77 25.13 25.23 21.08 16.48 14.09 11.34 8.74 7.73 6.08 4.16 5.92 6.89 8.04 9.38 8.44 16.41 17.16 17.23 18.17 21.91 24.23 26.93 26.55 24.66 20.13 20.66 18.35 25.15 28.68 29.28 29.23 25.30 18.58
27.29 26.43 26.25 25.52 24.77 22.70 24.49 23.00 21.82 19.22 16.90 14.17 12.33 8.04 1.75 7.72 7.91 8.56 9.05 13.59 14.34 15.85 16.93 15.67 18.67 22.49 24.88 24.37 24.03 25.63 21.57 21.19 22.15 20.35 20.01 27.99 29.15 29.33

GFSNE_sfc_wetblb_024.txt.gz
Wetbulb
36.25 35.85 34.79 33.88 33.85 32.84 32.92 30.94 28.57 20.74 23.63 25.74 26.10 29.03 29.16 29.78 31.32 31.35 29.99 34.20 35.59 35.36 35.77 36.64 37.30 37.84 38.20 38.65 39.34 40.10 40.88 42.34 42.07 42.57 43.02 44.10 45.23 45.75
36.20 35.53 34.68 36.29 34.68 33.40 31.41 31.19 29.82 27.23 23.29 24.90 25.13 26.43 27.95 30.10 31.30 30.08 29.49 33.81 33.62 34.64 35.62 35.74 36.13 37.06 37.22 37.72 38.10 39.17 40.08 40.91 41.69 41.50 41.43 42.70 44.40 45.39
35.70 34.78 35.06 34.24 32.43 31.31 29.86 29.28 27.25 26.86 22.93 23.20 24.57 25.01 24.23 24.83 27.16 27.85 29.40 28.81 29.16 33.31 34.03 34.72 35.24 35.84 36.26 36.85 37.53 38.26 38.77 39.86 40.23 40.84 41.02 42.17 43.56 44.60
33.91 33.72 33.26 35.31 31.10 29.22 26.10 24.80 24.14 23.46 22.55 20.64 21.97 22.31 23.03 24.12 25.07 24.75 28.21 30.63 28.50 32.22 33.29 33.28 34.02 34.85 35.45 36.12 36.07 36.81 37.90 38.55 39.34 39.53 39.98 40.91 41.20 43.69
34.32 33.79 33.23 31.23 27.82 25.65 24.89 23.61 23.13 25.79 22.51 20.78 21.18 22.33 22.47 23.41 24.32 25.43 25.83 25.79 29.85 31.72 31.13 31.42 33.03 33.90 33.82 34.09 35.15 36.06 37.61 38.55 39.18 39.26 39.26 38.81 39.45 41.44
32.98 31.68 30.48 28.26 26.45 24.96 24.25 22.75 23.37 21.73 21.92 21.09 21.46 21.96 22.17 24.00 23.60 22.35 23.85 25.68 24.83 27.62 28.79 29.28 31.00 31.76 32.26 32.58 34.16 34.55 37.80 38.40 38.82 38.45 38.09 37.95 38.07 40.02
30.02 29.95 28.50 29.51 32.10 27.48 24.73 22.78 22.25 21.29 20.95 20.64 20.47 21.10 21.45 21.52 21.34 23.46 23.03 22.72 23.02 24.16 23.80 25.32 25.91 26.58 27.76 30.60 32.75 33.87 35.93 36.26 36.94 37.34 37.88 37.92 38.15 39.44
28.53 27.67 27.23 30.18 30.96 31.09 29.80 28.57 25.61 20.98 19.70 19.04 20.16 19.18 19.13 19.29 21.48 20.77 20.70 19.63 19.25 23.56 22.33 22.84 25.36 24.62 26.44 27.67 32.75 34.71 34.93 35.91 36.55 36.94 37.29 36.99 37.93 38.73
27.61 26.52 26.93 28.76 27.33 25.18 26.34 25.85 24.53 25.69 25.11 21.26 18.39 18.78 18.32 19.69 20.21 20.33 21.24 21.11 21.03 23.86 23.80 21.75 23.38 22.68 26.11 29.47 32.22 33.39 34.97 35.79 37.04 36.41 36.65 35.83 37.60 37.64
26.76 26.01 25.53 24.51 24.26 24.43 23.17 22.34 22.02 22.36 22.77 23.34 21.17 20.50 20.97 22.75 24.19 25.31 25.32 25.08 24.88 24.58 23.90 20.61 22.60 22.73 25.57 27.72 31.50 33.28 34.46 35.56 37.17 36.00 35.97 35.18 36.34 37.32
27.95 27.52 26.28 24.63 26.31 28.27 23.64 22.30 21.39 21.56 25.36 26.66 26.90 27.22 27.26 27.63 28.02 26.35 23.19 22.57 20.32 22.33 25.96 24.24 22.01 22.33 24.30 25.41 26.72 33.32 33.61 35.00 35.86 34.56 35.68 34.78 36.17 36.13
26.35 26.27 28.96 25.47 27.94 27.31 22.97 21.36 18.76 20.52 20.72 21.91 22.23 23.14 24.36 24.38 27.31 24.71 24.41 21.76 21.65 20.87 24.53 24.67 22.93 21.75 20.44 24.93 25.87 24.41 28.76 32.95 33.76 33.82 35.63 34.89 36.01 36.00
26.01 24.70 25.02 28.46 28.17 28.24 28.50 22.78 20.23 22.44 22.74 22.66 21.55 21.28 21.57 22.48 23.67 24.30 24.66 23.79 22.13 21.87 26.10 27.44 25.37 23.06 22.26 22.27 24.19 24.32 26.98 31.35 31.32 32.54 35.06 34.34 33.89 36.22
25.57 25.54 24.89 28.71 29.02 29.33 27.80 27.95 28.40 25.64 19.15 17.29 17.06 18.32 18.70 19.62 21.90 23.46 24.53 24.56 25.10 24.63 26.45 27.57 27.20 23.56 20.14 19.78 20.60 23.89 28.04 29.89 31.44 32.49 32.39 33.30 32.97 36.73
25.29 25.43 27.05 28.59 29.43 28.00 29.02 28.64 24.74 21.24 16.17 10.08 16.34 15.69 17.49 20.30 22.27 22.92 23.97 24.56 24.99 26.19 28.07 30.22 29.50 26.46 24.95 22.81 21.35 25.08 26.51 28.18 30.98 31.84 31.91 31.91 31.91 31.91
24.83 26.06 23.41 24.42 20.79 21.24 21.20 24.24 23.11 21.09 19.44 16.49 13.45 14.89 16.88 17.54 17.89 20.49 20.61 21.68 22.15 22.55 26.27 26.81 27.99 27.99 25.18 24.89 23.98 23.43 26.34 25.32 28.64 31.57 31.88 31.91 31.91 31.92
23.93 19.26 18.10 18.18 20.52 21.14 20.36 21.28 20.62 19.28 16.77 12.80 12.27 13.18 14.88 17.11 17.84 19.47 20.40 20.82 15.84 19.25 20.58 23.66 26.79 29.07 25.23 25.09 19.68 23.42 24.63 25.64 26.83 29.12 30.73 31.25 31.25 31.88
24.46 20.23 20.16 18.55 19.39 19.94 17.68 18.10 16.49 16.49 17.16 15.82 12.14 13.50 12.56 12.67 15.15 18.28 19.53 18.58 18.32 19.22 20.72 22.09 20.21 20.29 23.22 23.19 27.78 23.70 22.26 24.57 27.22 27.85 30.22 29.38 29.43 31.05
25.40 24.81 22.62 18.54 18.39 19.21 19.04 19.03 18.32 16.74 15.92 16.17 13.95 10.19 9.16 12.65 12.64 15.12 15.61 17.36 17.61 18.37 20.61 21.67 20.85 17.22 17.50 9.26 22.93 29.96 25.85 23.55 24.17 25.90 25.49 27.23 28.07 29.34
26.31 22.46 21.06 19.66 18.59 19.74 19.81 19.67 19.85 15.25 14.74 14.51 11.82 5.05 1.92 8.05 9.12 11.41 13.33 8.50 15.54 18.17 18.62 19.98 19.41 18.95 19.24 19.59 17.56 19.49 29.32 24.95 21.11 21.82 22.85 26.33 28.13 29.80
25.82 24.24 23.33 21.44 20.67 21.44 21.08 18.53 16.20 15.40 14.07 10.57 9.74 7.29 0.86 8.41 7.81 9.55 8.97 10.31 9.73 18.50 16.48 16.37 18.67 22.21 23.65 24.11 16.30 17.49 22.15 29.01 28.36 24.98 27.35 24.33 23.38 22.15
25.66 25.83 25.58 23.97 23.09 22.61 21.54 21.34 17.67 16.36 16.94 11.81 9.13 5.94 1.45 3.99 5.10 5.20 4.56 9.78 12.73 12.60 17.03 17.64 20.32 23.60 25.52 25.29 21.21 16.51 22.71 16.37 23.28 28.11 29.11 26.98 23.89 20.76
28.14 26.97 26.50 25.99 25.67 24.35 24.31 24.06 22.29 21.55 20.47 18.03 14.47 11.14 2.75 5.15 7.12 4.51 4.56 13.32 13.05 11.91 14.17 15.98 17.56 20.51 21.78 23.02 22.75 22.77 20.47 20.49 18.03 18.23 18.08 27.80 29.07 29.40

GFSNE_sfc_wetblb_027.txt.gz
Wetbulb
35.76 34.54 34.27 33.65 32.96 32.23 31.74 30.33 29.04 22.60 23.14 25.91 26.07 27.50 27.77 27.95 28.96 29.20 28.10 32.24 33.90 33.96 34.54 34.94 36.02 36.93 37.41 38.03 38.79 39.36 40.02 40.25 40.92 41.70 43.08 43.26 43.84 44.04
34.97 34.41 33.45 33.15 33.62 32.62 30.47 30.19 29.08 27.61 25.18 25.10 24.40 24.93 25.96 28.12 28.76 27.66 27.17 32.40 32.32 33.42 33.09 33.64 34.45 35.59 36.04 36.35 37.18 37.67 38.20 38.93 39.78 40.54 42.02 42.57 43.17 43.05
34.25 33.95 33.70 33.87 32.46 30.92 30.19 28.83 26.62 24.93 21.91 22.81 23.83 24.08 23.23 23.36 25.21 25.35 27.21 26.51 27.43 31.86 32.83 33.24 33.28 33.24 34.10 35.41 36.06 36.54 36.86 37.41 38.26 39.39 40.53 41.39 42.06 42.35
32.83 32.87 32.85 34.24 30.75 29.29 27.28 25.54 24.20 23.20 22.32 20.47 21.41 21.92 22.27 23.16 23.54 23.48 26.57 28.82 26.87 30.69 31.93 32.08 32.05 32.01 32.47 34.52 34.38 34.49 35.04 35.58 36.37 37.88 39.41 40.11 40.57 41.18
33.26 32.35 32.53 32.06 29.07 26.36 25.04 23.86 22.85 24.97 22.40 20.74 20.91 22.06 22.00 22.53 23.21 24.19 24.91 25.28 27.97 30.55 30.15 30.24 30.53 30.95 31.60 32.32 32.85 33.28 33.83 35.30 37.20 38.09 38.72 39.05 39.13 39.50
32.34 32.01 31.58 29.73 27.32 25.26 24.65 23.11 22.86 21.38 21.49 20.72 20.82 20.78 21.18 22.95 22.60 21.64 21.70 24.37 23.71 26.44 27.81 28.35 29.81 30.81 31.02 31.07 31.63 32.60 33.43 35.05 35.83 36.48 37.93 37.68 37.75 38.07
30.30 29.83 28.67 29.32 31.38 27.86 24.56 22.42 21.85 21.12 20.50 19.44 19.08 19.91 19.95 19.81 19.00 20.35 20.04 20.97 22.43 23.98 24.03 24.22 25.67 26.28 26.59 28.91 30.22 31.59 32.78 34.59 34.84 36.21 36.94 37.18 36.78 36.45
28.85 28.18 27.39 31.24 31.86 32.36 31.46 29.31 25.03 20.72 19.29 18.18 18.69 17.81 18.14 18.27 18.84 18.85 19.29 19.64 18.97 24.04 23.10 23.70 25.72 24.49 25.82 26.43 29.65 31.68 32.77 33.77 34.84 35.55 36.43 37.21 36.50 35.80
27.72 27.43 26.82 27.84 28.71 27.29 29.57 28.29 26.61 26.61 25.77 20.30 17.67 18.11 17.97 19.37 19.98 20.27 21.18 21.93 21.51 23.95 23.94 22.35 23.31 22.77 25.72 27.59 30.80 32.37 33.16 33.72 34.95 36.06 36.52 36.77 35.41 34.82
27.29 26.38 25.56 25.31 25.38 24.85 23.40 22.66 22.26 22.87 22.84 22.85 20.67 20.50 20.73 22.01 22.33 24.07 25.20 24.64 24.24 24.07 24.43 20.77 22.81 22.78 25.20 26.80 31.25 33.28 33.67 34.04 35.24 36.65 36.87 35.64 34.65 34.64
27.76 27.07 26.39 25.29 27.65 29.85 24.31 22.77 22.19 22.65 25.62 26.86 26.92 27.20 27.32 27.33 26.11 23.24 20.62 20.76 18.99 20.75 23.66 22.64 21.73 22.75 24.88 25.67 27.37 31.74 32.57 32.73 33.33 33.61 33.85 34.48 34.81 35.15
26.39 27.05 31.14 27.16 28.59 29.23 23.88 21.69 20.03 21.93 21.02 21.61 22.17 23.51 24.39 23.75 25.96 23.19 22.52 20.29 19.82 18.67 22.70 21.41 22.77 24.78 21.82 22.50 23.99 25.33 24.51 30.73 32.36 32.96 33.24 34.33 35.87 34.25
26.30 25.72 26.12 29.78 29.45 29.80 28.70 23.14 21.65 22.91 22.14 22.24 22.58 21.71 21.51 21.71 22.12 23.08 23.10 21.87 20.40 19.89 23.92 24.81 24.17 24.88 25.33 22.12 22.12 24.00 22.69 26.93 28.68 31.99 33.45 34.34 35.56 34.59
25.96 26.61 26.27 29.54 30.17 29.55 28.42 28.39 28.67 25.35 18.04 17.88 16.87 18.62 18.40 19.18 20.63 22.20 22.93 23.25 23.85 23.37 24.84 25.80 24.86 26.13 24.05 19.59 19.61 20.91 23.44 28.06 28.13 29.65 32.60 34.28 34.42 33.88
27.49 27.45 28.43 29.34 29.83 28.99 29.89 29.96 25.26 19.48 14.72 10.47 16.12 17.22 16.77 20.00 21.17 21.89 22.80 23.42 23.90 24.55 26.30 26.48 25.53 26.34 26.82 23.43 21.90 21.82 23.60 27.03 29.14 29.03 31.46 32.21 31.84 31.89
27.29 28.19 27.59 27.23 24.81 25.20 22.86 25.59 22.70 20.79 19.26 16.36 14.59 14.22 15.69 17.08 16.41 19.38 18.54 20.02 19.90 21.63 24.36 25.93 25.18 27.13 26.13 25.28 24.57 22.46 22.34 25.07 27.84 28.72 30.68 31.98 31.90 31.89
28.80 26.00 24.98 23.67 23.15 23.80 22.79 21.54 20.24 18.93 16.54 12.19 11.05 12.82 15.04 16.66 16.19 17.44 18.19 18.18 12.09 17.43 19.62 22.78 25.21 24.77 25.43 26.51 21.54 23.02 23.06 24.62 27.06 27.96 29.92 30.63 31.39 31.63
27.12 22.74 22.55 23.43 22.56 23.11 21.98 20.74 17.14 16.48 18.37 16.32 10.62 13.60 14.63 12.05 13.87 16.52 17.35 14.38 14.52 16.59 18.83 21.14 21.29 19.67 20.90 21.72 28.03 25.98 23.16 24.16 26.31 27.83 28.90 28.97 28.91 30.72
26.92 23.99 22.75 23.73 23.19 23.51 22.86 21.00 19.35 18.02 17.20 16.39 15.20 13.27 12.48 11.11 11.28 13.74 13.39 13.99 13.55 16.15 17.92 19.94 19.79 17.58 16.95 15.80 20.82 28.95 24.66 26.22 25.39 23.71 25.37 26.16 27.87 28.51
29.11 26.36 24.01 25.10 24.22 23.86 22.83 21.23 20.41 18.59 14.53 14.45 11.86 11.02 8.74 8.42 8.07 10.56 11.40 6.37 10.43 15.63 17.05 18.33 17.70 18.40 17.69 18.40 19.64 18.32 28.76 26.75 24.52 24.04 24.24 27.42 28.33 29.44
28.57 28.45 25.28 25.23 24.69 23.97 23.29 22.18 20.39 17.44 12.32 9.27 14.16 14.03 8.75 9.31 7.76 9.46 7.48 8.32 7.56 15.97 15.20 15.42 17.58 21.39 23.06 23.29 19.70 17.49 22.51 27.44 29.18 26.64 26.72 25.23 23.86 23.68
29.65 27.51 27.55 26.30 25.04 24.40 23.11 22.82 20.40 15.98 12.82 13.32 12.86 13.79 10.55 8.47 8.31 6.38 1.58 4.31 11.46 10.61 13.85 16.30 19.18 21.83 23.73 23.78 21.10 21.20 22.79 19.66 24.73 27.43 28.76 28.21 22.69 21.47
29.67 28.44 27.61 27.79 25.96 25.29 24.64 23.10 22.19 20.46 18.85 17.60 16.91 14.11 9.68 8.26 9.29 6.47 2.60 8.17 11.94 10.77 11.97 12.63 16.49 18.84 19.67 22.14 22.56 20.42 21.72 21.34 19.41 19.07 19.62 27.45 29.19 29.50

GFSNE_sfc_wetblb_030.txt.gz
Wetbulb
35.62 35.18 34.27 34.49 33.68 33.00 31.79 30.54 28.95 27.47 25.26 28.31 28.18 29.66 28.80 29.11 29.60 30.26 28.81 31.31 33.13 33.47 33.71 34.63 34.71 35.39 36.04 37.09 38.03 38.46 39.05 39.90 40.03 40.71 41.16 42.03 42.78 44.24
35.58 34.13 33.73 33.60 32.87 32.45 31.41 31.56 30.34 28.26 26.95 28.53 27.43 27.34 27.94 28.67 28.96 29.30 28.10 32.01 31.63 32.21 32.87 33.16 33.83 34.46 34.91 34.98 35.36 36.28 37.38 38.29 38.63 38.94 39.43 40.24 41.57 42.77
34.09 33.91 33.63 33.38 32.66 31.79 30.71 30.16 28.74 27.68 25.95 25.54 25.70 26.12 25.34 25.47 26.45 26.76 27.53 27.44 28.16 31.32 31.81 32.44 32.60 32.50 32.70 33.09 33.61 34.42 36.44 36.53 36.80 37.51 37.97 39.10 40.68 41.85
33.36 32.88 33.18 34.64 32.00 30.84 29.38 27.90 26.14 25.16 23.86 22.09 23.15 23.98 24.01 24.95 24.78 24.86 26.49 28.11 28.28 29.94 31.16 31.33 31.34 31.62 31.76 31.93 32.24 33.06 34.15 34.78 34.95 35.57 36.33 38.11 39.58 40.83
32.92 32.16 32.16 31.59 30.15 28.66 27.31 25.91 24.79 25.78 23.75 22.23 22.01 23.79 23.87 24.22 24.41 25.34 25.57 26.25 27.27 29.62 29.62 30.04 30.58 31.25 31.57 32.05 32.43 32.44 32.80 33.18 33.68 34.40 35.89 36.61 38.44 39.54
32.82 32.05 31.60 30.90 29.78 28.03 26.49 25.13 24.41 22.87 22.55 21.91 21.78 21.77 22.14 23.93 23.83 22.38 21.47 23.99 23.81 26.38 28.00 28.70 30.06 30.68 31.11 31.38 31.52 32.01 32.30 32.98 33.50 34.16 35.86 35.90 36.98 37.52
31.21 30.99 31.09 31.26 32.95 28.81 25.97 24.42 22.89 21.95 21.96 21.16 20.07 20.42 20.29 19.89 19.97 21.45 20.00 22.04 23.27 25.17 25.52 26.50 27.60 28.32 28.68 29.65 30.13 30.85 31.55 32.57 33.34 34.20 35.09 35.76 36.65 37.07
29.26 29.04 28.44 32.23 32.57 34.13 33.38 29.85 25.49 22.65 21.14 19.48 19.59 18.78 18.99 19.43 20.83 19.91 20.37 20.14 19.40 26.45 24.80 24.77 27.50 26.65 28.02 28.71 29.74 31.37 32.42 33.33 33.83 34.09 35.22 35.72 36.58 36.72
28.87 28.41 27.71 27.79 29.52 27.90 31.38 31.26 29.32 28.59 26.78 22.33 19.34 19.23 19.06 21.02 21.31 20.57 21.34 21.71 22.17 25.13 25.22 22.79 26.19 25.05 27.89 28.77 30.33 31.63 33.58 34.04 34.43 35.10 35.43 36.79 36.53 36.26
28.01 27.61 26.81 26.54 26.19 26.13 25.54 24.64 23.90 23.98 24.21 24.02 21.75 21.28 21.77 22.79 22.77 23.38 22.80 23.29 23.85 24.67 25.39 20.45 25.10 24.62 27.55 28.31 29.93 31.42 32.93 33.05 33.30 33.55 34.00 33.88 33.98 34.07
27.91 27.69 27.00 26.08 28.52 31.10 25.17 23.50 23.22 23.40 26.92 28.10 27.46 27.11 27.72 27.81 27.04 24.00 20.71 20.06 18.66 20.61 24.22 22.28 24.25 24.05 26.16 27.08 28.89 30.27 32.00 31.60 32.70 32.84 33.05 33.40 33.25 33.93
26.81 27.81 31.37 27.57 29.63 30.40 26.78 23.69 21.42 22.89 23.53 22.64 22.75 24.07 25.92 24.80 26.45 24.23 22.31 19.16 18.95 18.40 24.16 21.67 22.75 24.16 23.00 27.04 27.41 29.46 29.32 29.67 31.77 32.06 32.53 32.98 33.54 34.36
28.02 27.92 27.85 30.67 31.80 31.36 30.38 24.26 22.79 23.91 23.22 22.30 22.56 23.29 23.54 22.95 23.20 23.48 23.51 21.82 19.42 18.90 23.84 24.45 22.85 22.98 24.10 24.69 26.47 28.01 28.50 29.24 29.77 31.02 31.38 32.52 34.00 34.46
27.14 27.58 28.10 30.19 31.28 31.67 30.29 28.82 27.97 25.66 22.70 21.34 20.51 21.02 21.07 21.07 22.28 22.88 23.57 23.78 23.95 23.12 25.01 25.03 22.70 23.58 23.75 23.24 23.59 25.77 27.87 29.15 29.69 30.30 30.38 32.21 33.07 34.83
28.13 27.94 29.07 29.98 31.04 30.60 31.12 29.87 27.82 25.44 21.10 17.67 19.04 20.20 20.26 21.97 22.46 22.51 23.48 23.59 23.77 24.17 25.47 26.03 25.38 25.14 24.45 24.32 25.14 25.18 24.63 27.73 29.52 29.71 30.23 31.69 31.95 33.20
28.77 29.66 27.10 27.19 28.51 29.36 27.85 29.27 28.40 25.68 23.01 20.78 19.32 18.96 18.54 18.64 19.43 20.91 19.83 20.88 20.13 20.59 23.41 25.47 25.46 25.14 22.60 23.88 25.89 25.29 26.16 24.48 28.27 28.88 30.48 31.54 32.68 32.55
23.17 26.54 27.35 26.13 25.56 25.36 25.68 25.98 26.10 23.81 20.79 18.64 16.94 17.20 17.39 18.11 18.67 19.66 19.58 19.40 16.84 17.27 18.82 21.98 24.68 24.75 24.26 24.20 25.20 25.81 26.23 25.74 27.53 28.68 29.41 30.72 31.62 31.25
27.15 26.63 26.00 25.52 24.08 23.89 24.08 24.59 24.94 23.97 22.69 20.29 17.66 17.32 17.18 16.95 17.20 18.11 19.01 17.74 16.56 17.64 18.14 20.16 20.95 20.64 21.90 22.85 28.30 25.62 25.84 26.18 27.85 28.61 28.88 28.71 28.98 30.70
28.82 28.32 26.96 25.54 24.31 24.07 24.86 24.45 24.06 23.36 24.11 20.77 20.08 17.17 16.35 15.81 14.99 16.61 16.82 16.56 16.59 17.59 18.61 19.92 19.12 18.53 16.71 16.36 22.36 27.27 24.68 26.89 26.78 26.90 27.67 27.86 27.82 29.40
30.05 28.89 28.01 26.52 24.47 24.39 25.37 25.21 24.49 23.72 21.08 19.65 17.26 16.06 13.84 14.69 14.23 15.01 15.96 13.21 14.72 16.54 17.95 18.97 18.20 17.94 17.44 18.30 19.67 22.14 26.90 26.47 26.49 25.44 26.87 28.13 29.30 29.76
29.30 28.41 29.19 27.69 26.47 26.05 25.52 25.76 25.33 23.38 20.98 16.18 17.75 15.55 12.42 14.13 13.05 14.25 14.08 10.47 10.66 16.76 16.85 16.55 18.36 21.00 22.91 23.15 19.96 20.70 24.81 27.52 28.30 27.82 27.29 26.65 25.63 26.90
29.16 29.72 29.09 28.24 27.53 27.06 26.45 25.24 24.21 23.20 20.82 17.85 16.90 16.32 13.96 13.42 14.18 13.52 11.40 12.25 15.40 16.08 15.98 17.76 19.09 20.64 22.71 23.32 22.37 22.99 23.79 24.51 26.76 27.10 27.70 28.62 25.81 24.45
16.89 23.28 28.70 28.95 28.15 27.41 26.00 24.97 24.08 23.21 21.78 19.60 18.68 16.42 13.05 14.11 14.26 14.43 12.64 12.64 14.54 15.51 14.95 15.38 16.88 18.92 19.32 21.50 22.19 23.02 22.06 22.55 23.83 23.09 24.43 26.84 29.29 29.19

GFSNE_sfc_wetblb_033.txt.gz
Wetbulb
44.86 44.54 43.28 43.54 42.94 42.16 41.37 40.24 37.71 33.18 34.05 37.50 36.75 39.60 39.30 38.67 36.60 36.10 35.63 33.83 32.80 33.46 33.40 33.72 34.75 35.42 35.90 36.48 37.04 37.68 38.18 38.90 39.44 40.14 41.10 41.55 42.01 42.47
44.67 43.47 42.78 42.35 42.18 42.02 41.40 40.57 39.42 36.96 33.10 37.40 37.59 37.92 37.68 35.60 35.29 35.03 34.12 32.56 32.38 32.04 32.25 32.88 33.48 34.02 34.57 34.85 35.28 35.82 36.30 36.79 37.55 38.95 39.68 40.20 40.78 40.86
43.47 41.79 41.63 42.01 41.26 41.16 40.62 40.05 38.74 37.84 34.20 35.96 36.32 36.19 34.55 34.14 34.32 34.23 33.25 32.95 33.43 32.18 31.65 31.85 32.23 32.53 32.82 33.04 33.40 33.71 34.25 34.80 35.73 37.44 38.24 38.53 39.12 39.88
41.37 40.94 40.60 40.58 40.78 41.13 40.35 39.21 38.11 38.04 34.96 32.13 34.47 33.03 32.51 33.65 32.82 31.42 31.31 32.09 32.47 31.52 30.81 31.48 31.60 31.63 32.14 32.53 32.87 33.20 33.57 33.77 34.07 34.98 35.90 36.47 37.16 38.40
41.10 40.62 40.62 40.70 40.14 39.88 38.83 37.76 37.43 35.38 34.63 32.19 31.24 32.90 32.25 32.31 30.84 30.99 30.94 31.44 31.23 30.87 30.49 30.65 30.94 31.64 31.87 32.26 32.71 32.94 33.19 33.28 33.26 33.16 33.80 34.61 35.32 36.80
40.19 40.15 40.49 39.92 39.65 39.56 38.20 37.23 35.79 33.96 32.98 31.29 30.77 30.51 30.70 31.09 29.85 27.86 27.98 30.30 29.61 30.70 31.01 30.70 30.93 31.45 31.67 31.97 32.20 32.58 32.81 33.05 33.11 33.21 33.22 34.12 35.15 35.90
39.90 39.58 40.03 39.65 38.26 38.15 36.99 36.54 34.48 32.83 31.86 30.61 29.64 29.42 29.02 28.72 26.81 28.01 26.74 27.98 29.26 30.84 30.58 31.52 31.94 32.48 33.34 32.71 32.80 32.38 32.07 32.64 33.50 33.91 34.11 34.04 34.81 35.73
39.41 39.55 39.31 36.78 36.56 34.90 33.40 32.99 33.59 32.81 30.93 30.14 29.09 27.56 28.22 28.01 27.74 27.07 26.11 25.19 23.87 31.52 29.15 28.58 31.78 31.04 32.71 33.75 32.17 31.59 31.94 32.69 34.57 34.39 34.93 34.73 34.87 35.70
39.29 38.99 37.96 35.89 34.26 35.82 33.94 33.85 31.53 29.71 30.07 31.57 28.46 28.76 28.09 27.78 27.49 26.24 26.58 25.91 25.49 28.37 28.19 26.13 30.47 29.97 32.83 32.97 32.63 31.93 31.82 32.52 33.72 33.83 33.84 34.23 34.45 34.96
38.82 38.56 37.80 37.44 35.74 34.76 33.78 33.30 33.41 32.97 31.71 30.20 30.54 30.42 29.73 29.11 28.57 27.59 27.02 27.11 27.71 28.92 29.56 23.57 29.52 28.91 31.90 33.06 32.91 32.23 32.01 32.60 32.97 32.91 33.17 33.45 33.29 33.55
37.62 37.14 36.82 36.44 34.86 32.01 32.02 31.26 31.57 31.26 30.30 29.28 29.31 29.41 27.51 27.65 28.83 28.72 25.99 24.89 23.61 25.58 28.85 26.57 28.15 27.68 29.90 31.32 33.91 31.98 32.01 32.28 32.06 32.15 32.56 32.82 33.06 33.51
36.44 35.39 32.63 34.33 32.79 31.60 32.51 31.39 29.41 30.74 30.82 29.51 29.78 28.88 28.78 29.40 28.34 29.22 28.00 24.28 23.93 23.10 28.86 24.74 25.56 26.15 24.98 31.31 32.25 33.97 34.39 32.89 31.88 32.38 32.16 32.71 32.77 33.48
34.76 35.08 34.99 31.93 31.97 31.67 32.13 31.89 31.27 32.10 29.72 29.36 29.26 28.92 29.32 29.62 29.83 30.02 29.54 27.16 24.59 23.89 28.14 26.02 25.00 25.12 24.86 25.69 29.86 32.37 33.71 33.47 34.16 34.05 33.38 33.60 33.26 32.73
33.91 35.14 35.36 32.76 31.91 32.80 32.64 32.10 30.48 29.21 30.47 29.65 28.73 27.61 28.07 28.58 29.37 29.96 29.66 28.96 28.77 26.51 28.25 28.05 24.54 24.48 24.46 24.97 25.52 30.88 32.82 33.51 33.92 32.63 32.46 33.04 33.29 33.95
35.88 35.00 32.80 31.86 31.49 31.21 32.12 31.86 30.44 30.27 29.91 28.51 27.88 27.70 28.95 29.97 29.65 28.55 28.50 28.68 27.98 27.86 27.41 28.29 26.90 26.17 25.75 24.92 25.25 27.92 29.30 31.39 33.78 32.43 32.78 33.25 33.16 33.68
32.83 34.50 33.01 31.41 31.32 32.28 31.49 32.08 32.25 31.83 30.42 29.33 28.38 29.26 29.69 28.21 27.64 28.55 26.56 26.69 25.08 25.60 27.49 27.80 27.40 27.30 25.82 26.61 27.24 27.42 29.60 26.61 31.01 32.46 32.54 32.51 34.22 32.95
32.75 33.16 33.08 31.51 30.39 29.99 30.34 30.76 31.12 31.56 30.08 29.84 28.95 28.27 27.35 27.58 27.31 28.20 26.60 25.36 23.71 23.73 24.53 26.49 27.29 27.20 27.17 26.48 25.58 28.60 28.92 28.81 30.62 31.32 31.40 31.40 32.77 32.58
30.05 30.25 31.47 31.36 30.28 29.76 29.17 29.18 29.31 29.18 30.01 28.93 28.44 27.87 26.90 26.76 26.78 26.70 26.09 24.39 23.23 23.41 23.84 25.27 25.09 25.00 26.62 28.22 28.02 27.39 28.07 27.25 29.65 30.68 31.39 30.04 31.01 32.29
29.82 29.37 31.38 31.86 32.08 30.05 29.06 29.10 29.06 30.32 30.48 28.63 28.10 27.88 27.22 27.04 25.88 25.80 25.63 24.11 23.34 23.53 24.05 25.02 24.08 23.38 21.72 21.68 28.09 27.00 25.92 27.44 28.41 29.93 31.21 30.71 30.43 31.14
27.22 29.65 30.54 32.15 32.17 28.97 28.52 28.33 29.31 30.11 29.11 28.37 28.08 28.36 27.75 26.98 26.05 25.18 25.26 23.81 23.26 22.84 22.72 24.54 23.81 23.42 21.91 21.82 22.32 27.34 27.34 27.99 28.16 29.18 30.06 32.00 32.78 30.87
20.14 20.40 21.13 26.25 32.13 31.30 30.35 29.31 29.38 29.59 29.48 28.48 28.15 27.55 27.39 26.46 25.95 25.98 25.77 21.51 20.65 21.89 21.26 22.60 24.20 23.04 25.32 26.82 23.03 25.75 29.82 28.05 28.89 28.78 29.08 29.63 29.74 30.52
17.48 17.96 19.57 21.23 24.08 32.74 30.65 28.97 28.97 28.77 28.73 27.84 27.61 27.67 27.23 26.52 26.17 25.35 25.36 24.43 22.69 22.79 22.59 23.96 24.39 25.41 25.62 24.61 24.27 25.72 27.71 30.04 29.84 28.56 27.95 28.81 28.24 27.04
15.52 15.82 17.20 17.95 20.21 20.26 25.51 31.02 30.12 29.81 29.29 28.40 27.24 26.42 26.40 24.78 25.95 26.64 26.27 23.82 23.43 21.94 22.25 22.20 23.00 24.84 24.08 24.65 24.66 26.51 25.20 26.83 28.74 28.17 28.46 27.49 28.46 28.12

GFSNE_sfc_wetblb_036.txt.gz
Wetbulb
48.33 47.29 46.25 46.04 45.86 45.35 44.45 43.33 40.49 36.53 37.64 41.27 40.74 43.63 43.45 43.19 42.12 40.79 39.41 38.26 35.78 34.33 34.00 34.03 34.69 35.34 35.82 36.44 36.71 37.32 37.86 38.45 39.09 39.48 40.01 40.61 41.75 42.45
46.83 46.32 45.69 45.27 44.71 44.71 43.93 43.47 42.78 39.95 36.39 40.80 40.96 42.14 42.39 40.95 40.75 39.20 38.59 36.87 36.16 35.58 34.00 33.45 33.70 33.93 34.36 34.63 35.05 35.58 35.86 36.29 36.70 37.32 38.06 38.91 40.35 41.24
46.38 45.13 44.40 44.84 44.08 44.04 43.96 43.22 41.97 41.25 37.79 39.67 41.10 41.55 40.31 39.03 38.82 39.20 38.48 37.35 37.02 35.99 34.30 33.29 32.57 32.43 32.98 33.24 33.45 33.99 34.58 35.07 35.48 36.08 36.77 37.58 38.95 40.39
44.75 44.96 43.86 43.77 43.86 44.04 43.30 42.19 41.85 41.89 39.35 36.79 38.99 38.97 38.97 39.08 38.16 37.07 36.14 36.06 36.09 35.85 33.64 32.69 32.12 31.99 32.14 32.63 32.97 33.30 33.72 34.11 34.43 34.82 35.23 35.73 36.80 38.23
44.14 43.82 43.69 43.87 43.00 42.98 42.80 41.82 41.83 40.81 40.34 37.78 36.71 38.59 38.13 37.84 36.64 36.42 35.62 35.62 35.82 35.04 34.57 34.22 32.81 32.42 32.53 32.50 32.92 33.18 33.66 33.89 33.80 33.85 33.98 34.15 34.40 35.50
43.04 43.32 43.00 43.13 42.88 42.81 42.16 41.90 41.20 40.13 39.36 37.56 36.36 36.17 36.33 36.86 35.79 33.48 32.88 34.55 33.92 34.74 34.97 34.40 33.20 33.38 33.08 33.26 33.24 33.48 33.57 33.84 33.73 33.60 33.46 33.63 33.84 34.05
42.92 43.42 43.72 43.09 40.97 41.25 41.92 42.10 41.02 39.45 37.78 36.43 35.30 35.14 34.44 34.05 33.00 33.87 31.44 32.71 33.45 34.47 33.98 34.69 34.82 34.69 35.63 35.29 34.88 34.72 33.83 33.07 33.20 33.60 34.28 35.33 35.15 34.91
41.81 43.13 43.66 41.38 40.00 37.76 36.72 36.30 37.60 39.17 37.17 36.04 35.22 33.20 33.54 33.62 34.09 32.12 30.98 29.56 28.02 35.05 32.66 31.68 34.46 33.50 34.91 36.14 34.98 33.70 33.39 33.39 33.01 33.42 34.41 34.68 34.26 34.81
41.75 41.94 41.89 41.93 39.94 41.51 36.49 34.75 33.27 32.60 32.64 36.23 34.76 34.22 33.22 34.20 33.72 31.09 30.83 30.21 29.40 32.12 31.79 29.76 33.59 32.12 34.84 35.56 34.92 34.29 34.27 33.16 33.03 33.20 33.89 33.77 34.08 34.42
41.62 41.36 41.23 41.53 41.91 40.87 40.21 39.53 38.33 38.35 35.91 34.04 34.87 35.31 35.53 35.37 33.60 32.04 31.33 30.97 31.54 32.87 33.34 27.79 32.51 31.30 33.78 35.34 34.80 35.03 33.17 32.91 33.04 33.06 33.47 33.32 33.74 33.85
40.58 40.86 40.89 40.94 38.75 37.21 38.57 37.89 37.93 37.83 35.94 34.35 33.81 32.56 30.72 29.40 29.46 31.24 29.32 28.43 27.68 29.70 32.78 30.28 30.74 29.96 31.54 32.76 35.11 34.62 34.09 34.18 34.08 33.85 32.93 32.79 33.43 33.52
39.77 39.84 36.35 37.48 35.81 34.45 37.17 36.65 35.36 36.86 36.95 35.62 33.38 31.68 30.82 32.10 29.16 30.76 30.67 27.81 27.94 27.03 31.91 28.87 29.38 28.79 26.08 31.71 33.34 34.10 35.36 34.19 34.17 34.26 34.06 33.94 33.83 34.33
37.68 38.34 39.60 35.05 33.97 33.74 33.86 36.03 36.30 37.51 35.17 34.88 34.68 34.52 34.35 33.37 33.06 32.74 32.81 31.26 28.97 28.13 31.66 30.07 28.08 27.72 27.44 26.93 30.24 33.02 34.55 34.81 35.81 35.51 35.26 34.72 33.63 33.99
35.40 37.94 39.25 36.01 34.99 34.04 33.46 32.95 33.00 32.64 35.90 34.81 32.71 31.62 31.62 31.91 33.28 33.68 33.68 33.49 33.21 30.82 31.79 31.17 27.67 26.65 26.15 24.89 25.41 31.26 33.58 34.33 35.22 33.96 36.96 35.40 34.46 34.82
34.44 34.98 33.28 33.00 34.02 33.62 32.72 32.31 31.74 34.30 34.25 32.52 31.41 31.83 32.80 32.32 33.49 32.85 32.66 32.65 32.21 32.17 30.90 31.05 29.63 28.77 27.28 25.48 25.18 27.90 29.92 32.26 34.74 34.62 35.24 34.68 33.20 33.18
30.60 33.72 32.68 31.24 32.21 33.39 34.32 34.74 34.66 35.41 33.82 32.53 32.22 32.93 33.41 32.30 31.48 31.97 30.22 30.52 29.18 29.44 31.41 31.71 30.57 29.34 27.21 28.08 27.46 27.83 30.33 29.58 32.98 33.84 34.11 33.96 33.86 33.14
27.74 30.95 31.27 32.83 31.81 33.98 34.36 34.21 34.13 33.48 32.79 33.32 32.71 32.67 31.81 31.23 30.49 30.97 30.16 29.25 27.62 27.54 28.34 30.27 31.35 30.64 29.71 28.19 26.18 27.73 29.91 30.14 31.08 32.21 32.84 32.56 33.70 32.40
27.56 30.45 31.68 32.23 31.64 32.00 33.36 33.28 33.15 32.30 33.41 32.95 32.56 31.87 31.26 30.28 29.87 29.86 29.40 28.37 27.40 27.73 27.69 29.03 29.29 28.13 28.85 30.29 30.62 28.43 28.68 28.68 29.51 31.27 32.89 31.81 32.12 32.53
26.04 26.14 26.67 28.20 28.50 30.54 33.21 33.36 33.18 33.00 33.09 32.14 31.73 31.61 31.51 30.80 29.42 29.22 28.44 27.65 27.19 27.84 28.14 28.96 27.99 26.35 23.37 22.94 29.76 27.92 28.16 28.01 28.48 30.10 31.91 31.94 31.72 32.07
23.39 22.96 22.82 23.82 24.45 26.46 25.82 32.53 32.22 32.68 32.59 32.02 32.27 31.74 32.02 30.44 29.57 28.59 27.95 27.53 27.26 27.62 26.99 27.95 27.96 26.59 24.06 23.66 24.40 28.06 28.97 28.82 28.50 28.83 29.64 32.48 34.31 31.54
20.64 20.50 21.05 21.60 21.98 23.62 26.28 25.38 32.61 31.88 32.23 32.25 31.53 30.89 31.16 30.17 29.80 29.05 28.45 27.48 26.46 26.79 24.97 26.04 28.98 24.61 27.26 28.43 25.44 28.27 31.17 28.35 29.16 28.69 29.16 30.24 30.51 30.97
18.41 18.52 19.19 19.32 20.64 21.44 22.16 23.20 28.48 31.69 31.70 31.53 31.15 31.14 30.98 30.85 30.14 28.96 28.62 27.44 25.94 26.56 26.55 28.22 28.41 27.64 27.57 25.75 25.82 28.31 29.40 31.67 30.23 29.13 28.65 28.42 27.99 27.33
17.05 16.86 17.62 17.82 18.86 19.85 18.99 19.77 21.40 24.32 32.17 31.62 30.95 30.72 31.16 29.82 30.27 29.41 28.91 27.67 27.29 26.68 25.91 25.95 27.26 27.38 26.93 26.58 25.57 27.79 26.97 28.92 30.67 30.54 29.04 27.75 27.66 27.57

GFSNE_sfc_wetblb_042.txt.gz
Wetbulb
46.36 45.51 45.89 46.11 45.33 43.85 42.33 41.17 37.50 32.70 33.98 38.14 38.30 40.93 40.78 40.78 40.63 38.41 37.97 42.30 41.07 39.65 38.93 39.22 39.16 38.44 37.47 37.31 37.45 37.62 37.89 38.16 38.57 39.00 39.51 39.65 40.22 41.09
45.53 45.99 45.01 45.48 45.22 43.18 42.10 41.61 40.69 37.72 32.68 37.01 36.93 38.42 39.97 40.78 40.94 37.39 37.40 41.82 40.78 40.20 40.03 39.84 39.64 37.79 36.72 36.71 36.60 36.33 36.66 36.87 37.14 37.70 37.90 38.30 38.92 39.63
44.59 44.02 44.31 45.33 44.29 42.28 42.00 41.40 39.69 38.39 33.83 34.77 37.00 37.77 37.54 36.74 37.54 37.42 38.27 35.96 35.57 40.31 39.89 39.12 38.81 37.55 36.48 36.04 35.77 35.79 35.85 35.79 35.99 36.32 36.76 37.38 38.07 38.61
43.15 43.86 44.28 45.05 43.26 41.45 40.58 38.68 38.03 37.51 35.48 32.51 35.07 35.75 35.79 36.24 35.72 34.83 37.55 37.80 34.41 39.03 39.15 38.98 38.34 37.55 36.56 36.21 36.06 35.60 35.53 35.32 35.35 35.47 35.77 36.37 37.18 37.48
43.61 43.43 43.20 42.67 41.45 40.01 39.79 39.13 38.81 41.17 37.17 34.93 34.79 35.40 35.33 34.98 34.12 34.74 34.23 33.39 36.53 39.60 38.99 38.50 38.49 37.80 37.32 37.09 36.48 36.48 36.40 36.17 35.62 35.39 35.32 35.50 35.90 36.08
43.57 42.80 43.25 42.68 40.85 39.67 39.75 38.43 39.82 39.48 38.50 36.86 35.65 34.52 33.59 34.35 33.24 30.82 29.69 31.26 30.84 35.70 36.45 35.67 36.71 37.41 38.11 38.06 37.40 37.37 37.18 37.05 36.71 36.39 36.08 35.59 35.23 35.20
42.65 42.16 42.70 42.02 42.02 40.80 40.96 39.03 37.32 37.01 36.44 34.72 34.18 33.74 33.49 31.39 30.38 30.54 28.88 28.69 29.36 29.87 28.62 29.18 29.59 29.43 30.24 34.89 36.24 37.97 37.30 37.69 37.15 36.60 35.04 35.39 34.95 35.07
40.22 40.68 41.60 40.96 40.97 39.16 38.91 38.65 38.55 37.08 35.86 35.45 35.19 34.30 32.55 32.97 32.16 30.26 27.87 26.33 24.23 29.46 27.36 26.66 28.63 27.97 30.57 30.42 35.46 35.47 34.74 35.54 35.62 35.40 35.15 35.13 34.99 34.74
37.89 39.34 39.25 41.47 40.08 39.15 38.08 36.93 35.82 36.26 36.40 36.94 34.88 34.33 34.14 34.47 32.15 30.69 28.72 26.91 25.50 26.99 26.73 24.54 26.64 27.79 29.80 33.44 35.16 35.62 35.52 35.78 35.74 35.68 35.43 34.91 34.96 34.79
39.21 38.97 37.79 36.79 37.18 36.94 36.19 34.99 35.83 36.77 37.32 36.48 35.19 35.13 35.59 35.90 33.89 34.16 31.42 28.58 26.72 26.70 27.70 23.95 26.62 26.28 27.88 28.85 34.76 35.19 35.45 34.67 34.67 35.02 35.34 35.25 35.19 35.12
37.87 37.06 36.74 35.72 36.10 36.53 33.99 32.75 33.59 34.83 37.82 37.41 37.56 37.34 36.42 35.98 35.43 32.43 27.76 24.30 20.54 23.77 27.44 26.04 26.11 24.46 25.61 25.44 27.30 34.31 34.00 34.27 34.99 34.78 34.78 34.96 35.16 35.19
32.47 33.87 34.07 34.02 34.20 32.90 28.54 27.80 27.73 30.16 32.55 34.16 34.72 35.02 34.53 32.66 33.16 32.15 29.74 26.22 23.82 21.29 27.15 26.42 24.67 22.82 19.87 24.90 25.71 26.58 26.74 31.60 33.62 33.91 34.82 35.03 35.06 32.25
27.68 28.22 28.72 32.15 31.96 30.81 30.63 26.72 26.39 28.38 29.37 31.53 32.06 33.51 34.53 33.29 31.18 30.42 29.92 29.11 25.48 25.04 27.87 28.65 23.96 23.09 21.27 22.91 23.06 25.43 26.13 26.95 28.02 30.34 33.79 34.74 35.18 35.06
26.21 27.09 27.86 29.94 29.27 30.05 29.19 29.95 30.90 30.06 30.16 30.08 30.05 30.65 32.86 33.44 33.08 31.23 31.59 30.84 30.16 28.72 29.71 29.24 24.88 23.23 20.40 20.75 21.70 23.43 24.92 27.28 26.51 27.85 30.22 32.69 33.39 33.76
26.33 27.15 27.18 27.13 27.74 27.68 30.46 31.74 29.91 29.26 28.81 27.99 28.55 29.12 31.62 34.27 34.94 33.72 33.24 31.11 30.44 30.13 32.12 30.68 26.19 25.42 23.08 22.37 22.35 23.05 23.68 25.42 26.33 26.64 25.29 27.89 29.38 31.91
24.30 23.24 23.64 25.30 25.94 26.11 26.57 26.55 27.14 28.45 28.63 27.80 29.43 31.08 32.77 32.76 33.59 33.20 31.42 30.99 30.00 27.41 30.29 29.66 28.26 27.72 23.29 23.98 23.78 23.52 24.00 23.54 26.10 24.34 25.08 28.40 31.33 30.61
20.96 22.16 23.04 23.75 22.92 22.83 22.84 23.47 23.92 24.13 23.57 25.10 24.49 27.39 31.66 32.44 32.17 31.67 31.55 29.88 26.64 24.39 22.58 26.99 28.52 28.37 26.79 26.26 23.61 24.63 24.89 25.72 25.69 25.15 26.47 27.27 30.09 30.16
21.34 20.31 17.30 17.44 19.31 20.07 19.41 19.66 20.50 20.74 21.43 21.93 22.81 24.81 30.45 31.04 31.05 31.02 30.19 27.95 26.63 25.89 24.57 26.03 25.36 24.95 24.97 25.79 29.21 25.97 23.65 24.81 23.32 27.90 27.73 28.28 27.67 28.90
18.19 17.84 14.36 16.00 17.87 19.31 18.74 18.39 18.37 20.24 21.26 19.72 21.54 22.78 30.30 30.90 30.78 29.46 28.50 28.11 27.28 25.70 25.97 26.35 26.01 22.96 16.90 14.33 24.11 29.60 21.75 22.61 26.65 25.40 26.13 27.85 28.41 26.97
19.45 17.21 15.61 16.61 17.18 17.40 17.08 16.85 17.61 18.58 18.35 18.08 18.79 20.90 26.05 30.83 29.87 28.32 28.32 26.80 25.39 26.22 25.90 26.56 24.69 24.13 20.33 15.75 14.54 18.63 29.53 21.27 22.50 20.65 24.51 26.82 31.23 31.22
17.77 17.03 15.86 16.18 16.20 16.52 15.81 15.53 16.34 16.44 16.98 17.06 17.36 19.34 18.62 30.39 28.84 27.68 27.29 25.75 26.32 27.33 25.45 25.03 25.08 24.41 24.00 21.24 12.93 15.59 25.54 30.58 25.79 21.85 23.43 24.12 26.68 25.05
14.54 15.07 15.77 15.53 14.72 14.61 14.45 14.02 14.29 14.28 14.71 16.46 16.32 17.32 17.31 18.45 27.89 25.33 24.31 26.28 27.81 26.94 26.87 25.86 24.72 25.10 22.75 21.89 19.06 13.92 24.46 25.93 28.52 28.59 27.62 26.00 21.66 19.08
11.41 13.74 12.88 13.11 13.51 13.75 13.56 12.21 13.15 12.16 13.54 15.25 15.71 15.88 15.57 15.60 18.80 28.61 26.63 27.89 27.60 26.38 26.05 23.43 24.45 24.43 23.35 23.25 20.86 17.71 25.92 20.32 26.53 24.94 21.19 27.65 27.93 28.03

GFSNE_sfc_wetblb_045.txt.gz
Wetbulb
46.50 45.08 44.77 45.62 44.39 43.52 42.39 41.18 37.02 30.93 31.97 35.84 36.90 39.71 38.70 38.74 40.21 41.01 36.94 42.09 41.90 41.97 41.62 41.38 40.40 40.62 40.15 39.06 38.73 38.41 38.56 38.22 38.43 38.75 38.94 39.59 40.00 40.22
45.82 44.55 44.60 44.39 44.73 44.99 43.88 41.55 40.18 35.52 31.81 34.74 35.51 36.07 37.19 39.57 39.58 38.27 36.78 41.53 42.35 41.36 40.40 40.27 40.77 40.92 39.85 38.62 38.24 37.91 37.81 37.81 37.91 37.93 37.85 38.30 38.88 39.33
44.60 44.13 44.22 44.85 44.36 44.13 43.12 41.76 39.18 38.13 35.17 34.25 34.74 35.84 34.43 35.36 36.53 36.82 37.06 36.86 36.38 41.13 40.53 40.66 40.07 39.99 39.81 39.13 38.01 37.56 37.28 37.31 37.53 37.43 37.62 37.40 38.17 38.58
43.63 43.63 43.49 44.88 43.37 41.60 40.54 39.73 37.36 36.88 36.47 34.26 32.90 33.82 34.32 34.88 34.71 33.36 36.62 37.97 35.40 38.94 40.65 40.06 39.62 39.14 38.58 38.17 37.56 37.57 37.02 37.07 37.01 36.87 36.98 37.04 37.50 38.00
43.32 43.36 42.95 42.65 39.99 39.18 38.34 37.17 36.91 40.14 39.03 36.69 36.74 33.82 35.42 33.76 33.90 33.23 32.85 32.90 34.93 38.82 39.50 39.04 39.28 39.25 39.28 38.27 38.03 37.68 37.78 37.69 37.38 37.23 36.70 36.26 36.39 36.69
43.39 42.94 42.90 42.49 41.27 38.50 38.43 37.44 37.88 38.19 38.18 36.53 36.97 36.93 34.26 35.49 34.60 34.17 32.59 31.12 32.16 35.57 37.02 34.88 35.89 37.28 38.52 38.66 38.44 38.64 38.23 38.10 38.10 37.85 37.32 36.11 35.86 36.34
41.92 42.77 42.25 41.51 40.71 39.96 39.83 38.60 35.77 34.78 34.81 34.55 34.23 33.52 31.97 30.41 30.83 33.19 31.12 32.95 29.33 30.77 27.93 27.96 28.20 28.29 28.90 33.58 34.89 36.73 36.71 36.76 37.20 37.76 37.35 36.86 35.96 35.71
40.45 40.45 40.87 39.86 39.62 38.65 38.59 38.41 37.82 36.56 34.74 34.03 33.82 33.10 33.79 31.84 33.53 31.82 31.01 30.13 27.90 28.84 26.74 25.64 28.40 26.49 27.89 28.21 33.42 35.36 36.21 35.70 35.94 35.78 35.98 35.95 35.55 35.17
39.34 39.02 39.56 40.19 38.12 36.54 34.75 34.41 33.90 35.21 34.94 32.57 31.78 32.80 33.99 34.62 32.40 31.70 31.38 31.75 31.07 30.27 29.18 27.15 26.06 24.78 27.28 31.72 34.98 36.05 35.45 35.28 35.45 34.99 35.32 35.29 34.93 34.81
39.23 38.13 34.71 33.09 33.34 33.20 30.90 29.25 29.94 31.25 32.42 33.64 32.67 33.23 33.79 34.71 34.86 35.08 34.10 34.32 33.35 31.09 28.67 26.39 23.85 23.95 26.29 27.21 32.98 35.19 34.85 34.89 34.78 34.91 34.96 34.75 34.62 34.84
33.92 32.51 31.94 30.81 33.92 32.77 28.50 26.58 25.65 25.41 29.61 31.54 32.06 32.64 33.83 34.15 34.37 34.08 31.97 30.94 29.87 27.64 27.63 25.60 23.49 23.38 24.30 24.29 26.11 32.86 33.63 33.37 33.56 33.54 33.97 33.93 34.04 34.48
27.92 29.63 31.21 30.51 31.71 31.37 26.89 25.02 23.74 24.48 25.86 26.90 28.12 29.03 30.96 31.09 33.97 33.64 32.63 31.27 29.89 26.42 27.50 25.95 24.75 22.74 19.69 23.04 24.42 25.41 24.85 29.64 31.75 32.78 33.03 33.75 34.46 32.16
25.86 25.38 25.70 29.29 28.99 28.76 28.86 26.03 26.00 28.17 28.57 28.64 28.43 28.54 28.85 29.24 30.66 32.05 31.78 31.95 30.40 27.39 29.19 29.15 24.90 21.91 20.63 21.01 22.34 24.80 24.39 24.61 24.86 27.76 30.71 32.06 33.40 33.84
24.58 24.62 24.77 26.91 27.52 28.48 28.23 29.39 28.28 26.51 26.68 27.48 27.81 27.85 27.67 28.27 29.25 32.58 31.02 31.41 32.74 31.48 31.35 30.25 25.61 22.81 20.54 19.79 19.42 22.85 21.85 23.70 23.93 25.28 26.02 29.39 31.35 31.46
24.38 24.21 25.06 25.98 26.77 26.15 27.46 26.62 24.55 23.81 22.31 21.52 22.09 23.49 24.49 26.73 30.02 31.07 33.77 32.43 31.55 31.44 32.06 30.67 25.96 26.54 24.32 21.85 19.75 21.80 20.84 22.53 23.70 21.43 22.93 20.94 26.60 30.52
22.77 21.50 21.77 23.65 22.96 22.82 23.45 23.59 23.01 22.34 20.54 20.04 19.83 20.34 22.99 24.06 26.02 32.07 31.93 31.39 28.09 27.06 30.31 30.92 28.39 26.90 24.58 23.40 23.19 21.27 21.71 21.73 23.19 22.33 23.81 21.80 29.81 29.13
17.74 16.58 19.34 20.54 20.64 20.88 20.88 20.91 20.06 19.35 18.24 19.50 18.94 18.44 19.27 21.31 23.87 30.85 32.22 31.66 28.34 27.37 27.46 28.59 28.36 27.93 26.51 26.10 21.11 22.41 23.14 22.30 22.99 23.84 22.65 22.36 29.18 28.54
18.56 15.11 12.48 10.65 15.48 17.79 17.26 16.97 16.66 15.99 17.24 18.09 17.38 17.33 17.11 20.16 20.35 30.70 30.56 29.24 27.16 25.17 25.25 24.49 24.08 24.40 24.67 25.97 27.92 23.36 21.25 21.66 21.88 23.91 23.82 22.76 26.96 28.54
15.65 15.09 9.38 8.67 11.84 16.67 16.32 15.25 14.07 15.58 17.33 16.21 15.79 15.59 16.69 18.50 17.76 22.73 29.33 28.36 26.77 23.84 23.17 23.95 24.72 21.48 19.09 15.18 22.52 29.09 21.68 21.16 21.51 20.65 22.14 25.12 25.85 27.18
18.69 16.27 12.24 11.89 14.07 14.84 14.18 13.44 13.53 13.30 13.68 13.37 13.60 14.87 15.09 15.65 15.77 15.93 28.30 27.64 26.68 25.48 25.28 25.40 24.54 23.93 20.97 16.45 12.97 17.53 29.34 20.92 17.96 17.08 19.67 26.39 30.00 30.47
16.86 15.67 12.34 11.70 13.64 13.27 6.28 4.52 2.56 9.90 10.29 9.57 12.03 13.70 13.90 14.33 13.60 15.48 25.33 25.97 23.94 26.66 25.22 24.55 25.83 25.15 24.88 20.44 10.78 11.96 17.44 29.97 24.89 20.76 19.53 23.47 24.96 23.92
13.60 13.82 13.31 11.78 7.11 7.63 1.69 0.44 6.53 8.65 8.99 9.75 10.93 10.81 12.68 13.65 13.25 14.04 15.54 24.06 25.33 24.99 25.19 26.89 25.29 24.80 23.14 20.84 15.62 7.21 17.46 22.04 27.89 28.83 28.42 26.40 20.45 17.28
8.36 10.12 6.02 1.45 0.73 1.52 9.96 4.74 7.37 7.64 8.09 9.68 8.74 9.88 12.02 11.37 13.13 14.20 14.41 18.04 27.30 26.15 26.56 26.46 24.52 24.98 23.34 22.47 18.31 14.72 18.98 20.19 25.05 24.19 22.77 27.38 28.02 27.91

GFSNE_sfc_wetblb_048.txt.gz
Wetbulb
47.68 46.46 44.86 45.48 44.65 43.46 42.84 41.24 37.22 35.19 34.73 34.93 35.88 38.55 38.15 37.72 38.95 40.94 40.72 44.42 43.89 42.92 42.74 43.63 44.36 43.21 42.46 41.89 41.70 40.44 40.00 39.38 39.22 39.28 39.39 39.47 39.72 40.13
46.48 44.62 44.51 45.03 45.07 44.91 44.42 44.18 41.98 38.75 34.40 34.19 34.82 36.13 37.06 38.63 38.65 39.51 39.66 42.16 43.40 41.98 41.57 42.06 42.71 42.93 42.85 42.01 41.13 40.05 39.60 39.00 38.72 38.68 38.59 38.93 39.15 39.09
44.92 44.94 44.60 44.85 44.45 44.14 43.90 43.12 41.06 39.83 37.94 39.31 34.86 35.00 33.60 34.43 36.16 37.42 38.21 37.47 38.63 42.33 41.36 41.30 40.91 40.84 41.01 41.52 40.91 40.37 39.29 38.76 38.21 38.19 38.13 38.43 38.90 39.26
44.32 44.11 43.87 45.44 43.50 43.13 42.22 40.90 39.78 38.23 36.95 34.66 33.67 32.88 33.28 34.41 34.30 33.53 36.58 37.96 36.89 39.43 42.11 41.54 40.89 40.04 40.17 39.75 39.58 39.35 39.01 38.89 37.92 37.69 37.83 37.99 38.48 38.78
44.00 43.73 43.87 43.23 41.44 40.76 39.54 38.15 36.73 38.44 36.51 35.12 35.80 34.81 33.59 34.12 34.30 34.80 35.07 35.83 37.42 39.82 39.66 40.55 40.47 40.44 39.73 39.18 39.14 38.97 38.83 38.54 38.03 38.06 38.29 37.92 37.76 37.72
43.95 43.68 42.88 42.53 41.51 40.29 39.09 36.45 37.75 34.63 34.90 34.95 35.64 35.76 33.88 35.15 32.60 34.53 34.84 31.89 33.53 36.71 38.16 38.24 39.33 39.87 39.99 39.59 39.05 38.92 38.70 38.56 38.77 38.50 38.12 37.71 37.29 37.46
42.69 42.81 42.92 42.38 41.07 39.21 37.64 36.72 34.66 34.23 33.18 32.88 32.94 32.96 31.42 30.38 29.04 31.78 31.69 34.15 34.26 31.70 32.49 33.56 34.61 35.01 33.52 38.01 36.73 38.63 38.41 38.09 37.52 37.35 36.84 36.73 36.87 37.05
40.51 41.18 41.20 40.83 39.99 37.84 35.91 35.27 33.76 30.23 28.22 27.97 28.85 29.35 30.73 29.66 32.04 31.41 32.03 31.34 30.83 31.84 28.39 30.09 31.12 29.02 30.53 31.06 33.40 35.08 35.83 36.47 36.66 36.30 36.18 36.05 36.16 35.78
39.53 39.69 39.59 38.41 35.08 32.88 33.01 32.14 31.61 32.72 32.99 29.10 27.32 27.13 28.54 29.07 31.31 31.54 31.53 32.02 31.56 33.32 29.04 30.84 27.89 30.17 31.94 32.51 34.23 35.33 35.88 36.35 36.27 36.21 35.87 35.23 34.96 34.87
38.15 34.93 33.73 30.65 32.05 30.25 28.14 26.68 26.14 26.33 26.12 26.66 24.43 25.92 26.67 28.00 27.91 28.66 28.93 28.91 30.97 33.34 32.22 29.62 32.01 30.21 32.54 29.59 33.37 35.25 35.76 35.26 34.75 34.59 34.69 34.40 33.99 34.07
32.64 31.93 30.26 28.85 31.12 31.20 27.04 25.10 24.59 25.76 29.50 30.89 31.46 32.16 32.20 32.39 32.11 29.77 27.35 26.80 25.05 27.49 29.54 31.48 30.68 27.90 27.49 26.98 27.73 34.12 34.30 33.73 33.14 33.41 33.33 33.79 33.68 33.71
27.67 27.79 29.85 28.34 29.42 28.65 25.07 23.59 24.05 24.69 25.34 25.62 26.75 28.52 30.08 29.41 31.59 29.69 29.14 27.42 27.00 26.43 27.90 28.11 25.67 26.75 25.55 26.03 25.44 25.20 24.68 29.89 31.66 32.03 32.42 32.15 32.72 29.97
25.58 25.23 25.47 27.25 27.46 28.21 29.23 25.80 25.67 24.71 24.42 23.68 23.09 24.10 25.01 25.96 26.90 28.01 29.30 29.21 28.27 28.04 29.81 29.12 25.32 25.88 26.26 23.96 23.59 24.33 24.45 23.90 23.72 26.12 29.76 30.71 31.20 31.56
24.68 24.93 24.85 26.18 27.33 27.93 26.82 26.69 25.63 24.24 22.03 20.62 20.17 20.70 20.40 20.66 22.07 23.76 25.46 27.51 31.75 31.00 33.15 31.26 28.29 26.49 24.98 20.85 20.34 21.97 22.17 22.40 22.50 23.65 22.17 27.15 29.88 30.63
24.42 23.92 24.53 25.38 25.80 25.79 25.21 24.67 22.92 21.60 18.96 17.48 17.77 18.66 19.27 20.32 21.33 23.04 24.51 26.85 32.16 33.06 33.02 31.94 30.66 27.87 24.84 21.55 19.81 21.14 21.10 22.39 21.66 20.24 19.58 19.63 19.71 23.69
23.20 22.95 22.46 23.67 22.83 23.12 23.31 22.82 21.64 20.14 18.60 17.02 17.35 18.51 19.08 18.24 18.27 21.15 21.23 23.88 29.99 28.48 31.44 32.00 30.51 28.79 23.32 22.93 23.39 20.82 21.50 20.68 21.09 20.02 20.16 17.65 19.23 23.67
21.04 18.95 20.29 20.05 19.59 19.66 19.97 19.50 18.68 17.93 16.39 16.26 15.75 15.72 15.82 16.34 16.72 19.33 20.19 21.37 27.64 28.11 26.79 29.27 30.72 29.02 26.66 26.65 20.62 22.15 21.24 20.81 21.27 22.25 21.88 15.71 17.42 23.02
20.72 16.62 13.21 10.55 14.49 17.16 16.23 15.53 15.38 14.58 14.83 15.11 13.62 13.58 14.05 14.23 15.05 16.19 18.06 17.24 25.67 27.41 27.15 27.64 27.65 26.92 26.00 25.30 27.63 22.61 20.30 20.59 21.36 23.55 23.29 16.65 17.56 24.18
17.62 15.80 11.38 9.87 13.45 15.38 14.85 14.12 12.92 13.75 14.42 12.85 11.39 10.43 12.84 13.74 13.49 14.18 15.44 15.89 22.18 26.79 24.72 25.38 25.75 23.07 17.15 12.95 22.41 29.05 21.87 20.68 20.57 19.24 22.19 19.92 20.98 25.75
19.06 16.43 14.75 14.53 14.54 13.83 13.50 12.55 11.90 9.77 9.37 10.46 8.61 9.46 10.05 10.40 11.44 11.93 13.39 14.21 14.54 26.99 25.34 24.48 23.27 23.36 19.40 16.25 12.91 17.43 28.81 19.19 17.08 16.41 18.46 23.11 27.21 30.16
16.53 15.31 14.96 13.83 13.16 12.66 7.71 3.39 -1.66 1.97 4.81 -2.02 5.58 7.84 6.45 9.10 9.92 10.95 11.75 12.60 14.61 25.50 25.40 24.65 25.60 25.21 24.65 20.43 11.61 11.31 15.51 26.79 23.92 20.59 19.63 22.61 23.60 24.71
14.43 14.30 13.58 12.22 9.93 8.60 1.77 -3.11 -2.57 -3.50 0.69 3.16 4.83 2.98 5.51 8.62 8.27 9.14 11.24 12.16 13.96 16.16 25.84 25.15 26.19 24.75 22.39 20.67 15.75 5.82 15.35 16.84 25.94 29.02 27.49 25.17 19.91 17.51
11.93 12.24 9.93 5.23 2.27 1.05 5.00 -0.32 -0.94 4.67 0.94 4.68 6.22 6.01 7.23 6.51 7.91 9.94 11.23 12.41 14.35 15.24 23.28 24.41 25.16 23.72 22.92 21.63 18.35 13.34 16.17 19.34 22.22 22.04 21.97 28.35 28.69 28.31

GFSNE_sfc_wetblb_051.txt.gz
Wetbulb
49.18 48.30 47.33 46.14 44.96 42.46 42.47 41.38 38.98 35.10 37.05 39.30 35.93 37.86 38.25 38.34 38.61 38.26 39.43 43.07 44.96 44.54 44.53 45.22 46.43 46.95 46.59 46.39 45.34 44.19 43.80 43.04 42.12 41.45 41.02 40.69 40.72 40.85
48.38 47.06 44.91 45.03 44.69 44.96 44.55 44.07 42.88 40.59 37.82 38.73 37.18 35.88 37.76 38.73 38.70 37.99 37.62 43.22 43.50 43.86 43.27 43.31 44.24 45.00 45.32 45.25 44.97 44.15 43.09 42.54 41.63 41.07 40.68 40.52 40.34 40.36
46.32 45.40 44.67 45.27 43.75 44.40 43.14 43.45 42.07 40.72 37.63 39.57 37.91 36.01 34.31 34.47 35.84 35.82 36.75 36.86 38.64 42.14 43.12 42.61 42.42 42.45 42.86 43.22 43.03 43.13 43.05 42.95 41.12 40.57 40.00 40.18 39.96 40.03
45.20 44.62 44.02 44.82 44.00 43.61 42.63 41.43 40.47 39.62 37.27 35.16 34.20 33.45 33.12 34.50 34.27 33.53 37.08 37.86 36.01 39.47 41.04 42.76 42.16 41.57 41.03 41.30 41.14 41.18 41.39 41.56 40.84 40.36 39.25 38.96 39.04 39.08
44.88 44.29 44.11 44.12 42.50 41.04 39.86 39.04 38.60 38.95 37.17 33.39 34.97 33.95 33.37 33.09 33.45 34.38 33.97 34.54 36.54 40.13 40.09 39.93 40.77 41.65 41.33 40.67 40.67 40.41 40.16 40.25 39.32 39.01 38.77 38.52 38.03 37.80
44.61 44.43 44.44 43.27 41.40 40.38 39.92 38.90 37.96 36.89 37.17 35.88 35.28 32.64 31.90 32.74 31.43 30.79 32.49 33.10 33.11 36.48 38.15 38.03 38.75 39.48 40.56 40.95 40.51 40.17 40.08 39.49 39.26 38.76 38.09 37.45 37.47 38.16
43.54 43.58 42.87 42.74 41.31 40.30 39.33 36.79 34.20 34.73 33.79 31.92 29.14 28.09 27.64 27.58 27.67 29.12 29.85 31.62 32.89 33.22 33.52 34.00 33.41 34.75 35.62 38.33 40.24 40.41 39.51 38.82 38.40 38.51 38.62 38.07 37.38 36.50
41.65 41.72 41.85 41.57 39.00 36.82 36.15 34.91 32.22 28.46 26.16 25.59 25.45 24.84 24.84 25.89 26.65 26.55 26.87 26.32 24.65 29.79 29.19 31.11 32.99 32.28 32.39 33.22 36.76 38.32 38.18 37.08 37.79 38.05 37.64 36.86 36.16 35.95
40.80 40.49 39.39 37.06 34.92 33.31 32.34 31.10 30.30 30.89 31.45 25.86 23.13 23.52 22.91 23.63 24.73 24.87 25.27 25.03 24.72 27.90 27.66 26.15 29.95 29.51 31.66 31.91 34.41 36.46 35.88 35.99 35.90 36.18 36.51 35.89 35.85 35.42
38.56 37.62 33.50 32.10 30.94 29.32 27.15 26.05 26.00 26.20 25.91 26.02 24.17 24.79 25.04 26.12 26.25 27.52 27.76 27.61 27.97 28.39 28.95 25.46 28.79 28.76 31.71 30.46 34.72 35.85 35.82 35.34 35.58 36.14 35.59 35.32 34.79 34.25
32.59 32.00 31.32 29.42 30.73 30.26 26.40 24.84 24.98 26.30 29.08 29.54 28.89 29.16 29.71 30.49 31.14 29.50 26.30 25.53 24.34 25.35 27.68 26.24 27.39 28.75 24.13 23.55 27.39 33.29 34.26 33.70 35.56 34.58 33.99 33.66 33.57 33.50
28.83 28.72 29.65 28.30 28.27 27.78 25.29 24.71 24.51 24.67 23.78 24.08 24.22 24.75 25.96 26.90 27.87 26.71 26.12 23.65 24.08 23.27 26.70 25.35 27.75 26.20 26.15 23.51 24.54 27.64 30.88 33.95 33.15 32.44 31.90 31.92 31.89 27.90
26.40 24.34 24.75 26.72 27.10 28.36 28.43 25.95 24.21 22.85 22.89 22.21 21.51 21.63 22.76 22.63 22.40 22.98 22.86 22.49 21.20 21.10 25.89 29.06 28.54 27.61 27.59 25.63 23.55 27.36 27.56 26.46 24.79 26.11 29.82 30.49 30.80 30.52
25.05 24.48 24.60 26.21 27.49 27.77 25.56 25.37 24.04 22.96 21.17 19.24 18.82 19.04 19.41 19.37 20.15 20.75 21.43 22.33 24.42 24.12 25.11 27.01 28.73 27.98 25.96 23.84 22.63 25.52 25.06 23.78 22.32 23.53 21.71 26.38 29.21 30.93
24.78 24.38 25.02 25.93 26.54 25.05 24.47 23.63 22.23 20.28 17.89 15.19 16.07 16.57 17.68 19.09 19.59 20.00 20.73 21.85 22.91 23.34 26.90 31.28 31.46 29.96 28.09 24.70 23.29 23.18 23.13 23.48 21.42 19.90 18.92 18.37 19.97 17.24
23.41 23.67 23.31 24.43 23.48 22.82 22.42 21.54 20.08 18.92 17.08 15.97 15.41 16.06 16.97 16.49 16.66 17.80 17.11 17.62 18.26 19.86 26.19 31.48 32.41 30.41 26.95 26.83 25.82 23.29 22.38 20.52 20.33 18.78 18.73 16.54 16.28 16.15
22.44 22.25 20.53 19.98 19.28 19.34 18.95 18.41 17.58 17.08 15.45 14.86 14.34 13.31 13.24 13.95 14.61 16.31 15.85 15.83 15.35 15.84 19.16 29.38 31.45 30.72 29.39 26.95 22.58 22.52 20.72 20.38 20.93 21.83 21.09 14.87 13.55 18.24
21.61 18.09 15.28 14.52 16.24 16.98 15.78 15.18 15.22 14.64 13.93 13.85 13.00 12.10 10.66 11.25 12.07 12.87 14.45 13.60 13.86 15.32 17.19 27.40 27.41 26.70 26.99 27.40 28.32 22.75 19.72 19.76 20.34 23.05 22.30 19.42 16.30 16.85
18.05 15.94 13.09 13.35 14.99 15.57 14.77 13.92 13.05 13.23 12.74 11.76 11.21 9.33 9.66 10.26 9.12 10.58 11.99 12.36 12.59 14.36 16.48 23.71 26.34 24.46 20.80 17.43 22.81 29.07 20.91 19.96 19.80 18.30 20.49 18.55 13.38 20.88
18.44 15.96 14.54 14.80 14.78 13.88 13.09 12.24 11.52 9.74 8.74 9.33 8.30 6.37 5.61 7.02 6.65 8.12 9.53 9.16 10.80 12.72 15.63 23.26 25.39 24.93 20.42 17.39 15.17 16.50 27.95 20.73 17.08 15.16 17.05 19.29 21.15 28.98
17.77 16.84 15.78 14.65 13.93 12.71 11.47 9.58 6.57 4.91 4.80 1.10 2.26 1.15 -1.59 4.38 5.25 7.07 7.24 7.73 9.65 12.97 14.18 16.32 26.21 25.76 24.41 21.55 12.69 12.20 16.92 27.11 22.90 19.93 19.27 18.45 18.80 24.72
15.77 15.43 14.80 13.16 11.51 10.78 7.58 3.67 2.54 2.02 0.89 -0.86 -1.95 -5.03 -3.76 0.89 5.13 5.37 6.01 6.77 9.69 11.89 14.61 17.70 21.70 26.44 23.30 21.38 16.56 7.08 16.90 16.66 24.40 28.54 27.25 24.50 19.36 16.98
13.59 13.60 11.68 9.46 7.24 5.44 7.20 3.78 2.06 -1.77 -1.61 0.06 1.20 2.89 -4.85 3.49 6.00 6.21 6.53 7.77 10.05 12.15 14.47 16.02 20.90 25.42 23.94 22.11 19.18 16.09 16.92 16.86 20.35 23.93 22.73 28.11 28.07 27.76

GFSNE_sfc_wetblb_057.txt.gz
Wetbulb
56.34 56.00 54.57 54.75 53.92 51.61 52.28 50.79 49.95 44.77 40.31 43.55 45.64 46.76 47.54 47.83 46.14 45.01 46.47 45.79 42.85 42.97 43.52 44.50 45.28 46.08 46.82 47.48 48.43 49.60 49.96 50.57 50.56 50.35 49.85 49.01 48.66 47.64
56.52 55.07 54.72 54.25 52.36 50.74 49.89 50.82 49.06 48.30 46.39 46.74 43.83 43.65 43.82 43.72 45.40 47.37 47.15 42.02 42.99 42.03 42.01 42.78 43.48 44.29 44.88 45.61 46.01 46.68 47.32 48.37 49.09 49.36 49.51 48.49 47.92 47.53
57.31 56.16 56.79 55.21 51.33 48.71 48.34 49.02 45.68 46.95 45.68 42.03 42.39 42.34 45.23 43.06 45.34 45.42 45.33 45.33 45.13 41.52 41.08 41.64 41.85 42.18 42.43 42.92 43.36 43.75 44.34 44.93 45.64 46.90 47.49 46.93 47.07 47.53
54.95 53.70 54.17 51.59 51.15 49.43 45.89 46.03 45.26 46.94 41.73 41.46 42.51 39.92 40.72 41.71 41.98 43.50 43.35 42.82 43.56 41.46 40.61 40.62 40.70 40.65 40.73 40.75 40.96 41.19 41.58 42.11 42.70 43.40 44.33 45.30 45.43 46.11
53.38 51.95 52.28 50.02 47.76 47.80 45.72 46.55 45.14 41.30 41.95 38.60 38.15 39.44 39.08 39.06 40.70 41.65 41.28 40.93 39.59 38.51 37.20 37.31 38.27 39.14 38.59 38.50 38.99 39.53 39.78 39.49 40.03 40.76 41.49 41.96 42.77 43.67
52.20 52.09 51.08 48.35 46.90 45.73 44.97 42.68 40.53 42.02 38.09 39.74 37.55 36.59 38.29 40.63 39.65 37.57 36.29 36.93 35.30 35.76 36.24 35.49 35.74 36.37 37.29 37.75 37.50 37.44 37.46 37.58 37.94 38.31 38.83 39.16 39.69 40.80
50.44 49.39 49.53 46.93 44.32 44.40 42.97 40.88 39.84 38.22 36.79 36.93 34.66 34.67 36.43 36.69 35.25 35.56 32.47 33.46 34.31 34.94 35.11 35.95 35.98 35.72 35.85 35.73 36.17 36.39 36.23 35.75 36.38 36.73 37.60 38.25 38.72 39.27
47.22 46.74 44.92 43.71 40.90 39.41 39.32 38.64 39.68 37.04 34.43 33.24 33.18 34.18 34.87 33.66 33.28 31.98 31.02 29.95 29.45 35.95 33.25 32.64 34.62 33.17 34.88 35.75 34.89 34.83 35.23 35.58 36.00 36.80 37.32 37.52 38.50 38.56
44.61 43.69 42.17 40.15 37.89 36.12 34.63 33.89 32.86 32.09 32.84 33.09 32.67 31.21 31.66 31.99 31.41 30.20 30.24 29.92 29.83 32.89 31.77 29.71 33.61 32.45 34.65 34.61 34.48 34.85 34.96 35.52 36.05 36.64 36.74 38.37 38.28 36.77
42.73 41.29 38.12 35.82 34.43 33.18 30.97 29.03 28.63 28.45 28.46 28.54 30.89 32.20 32.62 32.60 31.02 30.49 30.14 30.42 31.10 30.97 31.21 27.20 32.15 30.75 33.79 35.10 34.47 34.56 35.21 35.03 35.02 36.33 36.74 36.90 35.69 35.17
37.49 37.18 35.00 32.83 32.99 33.25 30.33 27.98 27.27 28.05 30.06 28.99 28.06 27.15 26.69 26.55 27.79 29.18 27.27 25.99 25.51 27.39 29.79 28.21 29.94 29.90 31.04 32.20 36.04 34.58 33.24 33.37 33.74 34.50 35.91 35.93 34.47 34.92
31.62 31.84 32.68 32.17 31.76 31.41 29.64 28.17 26.62 27.62 27.17 26.85 27.96 26.81 26.14 26.77 25.21 27.48 26.73 23.60 24.37 23.86 30.07 26.30 27.02 28.05 26.27 31.98 34.92 35.51 36.12 34.25 32.69 33.34 34.48 34.91 34.41 34.55
29.45 28.35 29.03 29.91 29.78 29.36 29.09 28.73 27.66 27.62 24.50 25.55 25.79 26.25 25.87 25.75 25.83 26.40 25.81 24.44 23.07 23.36 27.34 26.69 25.84 25.40 24.92 25.72 30.79 33.97 35.47 35.17 34.62 34.93 33.64 32.50 32.16 32.35
26.83 27.10 28.50 30.05 30.24 28.40 27.21 26.01 24.62 24.76 24.66 23.56 22.33 22.25 22.00 22.37 23.37 23.45 23.41 23.75 24.83 23.54 25.59 25.57 23.33 23.90 23.16 23.61 24.89 31.60 33.86 35.12 34.32 34.74 34.87 31.67 29.75 30.84
26.95 27.95 29.04 29.58 27.52 26.55 25.87 24.11 23.38 23.50 22.11 21.16 20.74 21.19 21.06 21.76 21.33 20.97 22.42 23.10 23.36 23.76 24.25 24.91 24.53 24.91 24.50 23.93 25.15 28.16 30.12 32.78 34.97 33.54 33.82 33.44 32.89 33.86
27.07 27.99 27.87 26.32 26.21 25.39 24.23 23.28 22.90 22.09 20.45 20.23 20.18 19.85 19.79 18.83 18.08 19.37 18.81 19.72 19.32 21.11 24.53 25.07 25.28 25.12 23.42 24.79 27.49 28.63 31.64 29.74 33.12 33.14 33.24 33.12 33.72 33.68
26.16 25.90 24.92 24.67 23.60 23.17 22.45 21.41 20.89 20.54 19.73 19.45 18.07 17.26 17.06 16.70 16.49 17.79 17.50 17.80 17.17 18.17 19.67 22.78 24.93 25.22 25.60 25.23 27.35 30.88 31.02 30.52 32.13 31.92 31.02 30.96 33.25 34.09
24.43 23.44 22.83 22.66 22.10 21.43 20.65 19.86 19.54 17.51 18.15 17.05 16.55 15.81 15.09 14.28 14.31 15.66 16.30 16.27 15.86 17.16 17.86 20.30 21.49 22.67 25.68 29.30 31.86 30.86 30.80 30.18 31.77 31.83 31.45 30.03 30.19 33.09
22.51 21.18 20.72 20.99 20.59 20.41 19.55 18.38 17.25 17.31 15.67 14.82 14.09 13.96 13.62 13.44 12.96 13.87 14.48 14.46 14.81 15.89 17.20 19.26 20.38 20.98 19.77 21.41 29.93 31.37 30.32 31.01 30.58 30.31 31.18 30.79 29.97 32.11
21.90 20.68 19.81 19.31 19.30 18.38 17.88 17.07 16.60 15.84 14.26 13.34 13.11 13.31 12.72 12.03 11.71 12.11 13.08 12.79 13.90 14.42 15.26 18.71 20.28 20.58 18.86 18.81 20.11 28.28 30.98 31.98 31.31 30.20 29.91 31.14 31.99 27.58
20.83 19.74 19.74 18.98 18.38 17.61 16.61 15.92 14.86 13.47 12.29 11.73 11.68 11.55 11.54 11.34 10.85 11.44 12.12 10.48 10.44 12.86 13.67 15.66 19.17 19.43 20.75 22.67 21.22 24.37 30.21 29.81 31.66 31.21 30.62 29.11 28.90 28.76
19.24 18.57 17.84 17.05 16.44 15.85 15.01 13.86 12.75 12.48 12.33 12.15 12.02 11.66 11.58 11.40 10.25 10.27 10.92 10.85 11.64 12.93 13.59 16.55 18.90 20.57 20.37 19.70 20.78 26.78 29.24 29.61 28.51 28.27 28.50 29.19 29.56 25.99
16.27 16.03 15.42 14.44 14.32 13.71 13.07 12.43 11.12 11.05 10.50 9.95 9.82 9.90 9.67 9.05 9.76 10.63 11.03 11.04 11.35 11.78 12.71 13.87 16.84 18.95 19.15 19.34 20.06 25.44 28.40 26.96 28.94 28.96 29.90 28.18 28.30 27.73

GFSNE_sfc_wetblb_060.txt.gz
Wetbulb
61.42 61.68 61.42 61.42 59.99 58.24 54.87 53.32 50.30 47.59 50.04 53.52 51.84 53.10 51.24 53.85 50.38 49.75 51.65 46.88 44.73 43.21 43.24 44.18 45.13 45.65 46.05 46.42 46.86 47.24 47.77 48.09 48.28 48.76 49.11 49.51 50.00 49.99
61.55 60.86 61.12 60.88 60.35 58.35 56.02 52.54 52.02 51.70 48.66 55.34 51.64 50.53 50.40 48.30 43.99 47.44 51.37 44.30 43.85 42.88 42.47 42.48 43.14 43.65 43.81 43.93 44.08 44.39 44.74 45.11 45.54 46.04 46.79 47.25 48.13 48.73
61.89 61.59 59.79 57.57 56.51 55.11 54.08 53.40 51.80 51.26 49.26 52.13 49.12 49.97 43.74 45.08 46.13 47.07 49.81 48.52 50.17 43.10 41.79 41.53 41.22 41.49 41.89 42.09 42.05 42.20 41.93 41.90 42.01 42.38 42.97 43.78 45.09 46.02
60.81 59.67 58.39 55.82 55.94 54.53 51.92 50.20 51.06 52.32 50.05 47.66 43.30 48.38 46.07 44.47 44.74 47.02 47.14 46.44 48.06 44.06 41.17 40.60 40.39 40.12 39.98 39.97 40.68 40.49 39.76 39.72 39.95 39.82 39.02 39.54 40.86 42.04
57.79 57.68 56.33 54.90 53.07 52.15 50.23 50.52 50.04 47.47 48.64 44.21 45.75 40.95 42.29 43.76 41.93 44.25 44.26 47.16 45.86 42.71 38.26 37.91 37.87 38.33 39.01 38.44 38.49 38.70 38.93 38.82 38.36 38.38 38.17 37.80 38.12 38.95
55.69 55.56 56.21 54.47 53.44 52.16 50.44 49.73 46.62 43.79 45.01 41.77 40.20 40.24 39.51 41.94 41.84 40.91 43.27 44.49 41.91 40.46 39.42 37.25 36.98 37.79 37.57 37.81 37.91 37.84 37.33 37.70 37.62 37.18 36.74 36.34 36.62 37.29
57.03 55.29 54.65 53.01 49.66 50.66 48.16 46.65 44.83 41.82 41.29 39.43 37.45 37.77 36.38 37.72 36.97 40.32 40.12 40.15 39.58 39.88 39.02 39.96 39.68 39.40 39.00 38.47 38.14 37.67 37.41 36.25 35.89 35.72 36.21 36.67 36.81 37.46
55.48 53.92 54.34 47.24 46.47 42.39 42.35 41.67 43.06 41.68 39.18 37.12 35.51 35.66 36.05 36.91 39.37 37.69 37.23 35.45 33.73 40.13 37.37 37.17 38.29 36.97 38.49 39.44 37.32 35.99 35.79 35.62 36.01 36.28 36.74 36.96 36.96 36.99
54.81 52.24 47.77 45.73 43.56 41.41 36.78 34.88 34.24 35.62 37.38 37.04 34.53 35.32 35.54 35.93 36.23 36.04 35.04 34.41 34.13 36.77 36.23 33.88 37.00 36.21 38.87 37.61 36.54 36.08 35.58 35.39 35.53 35.76 36.30 36.30 36.61 37.40
50.76 47.35 44.77 41.14 40.03 37.13 35.30 32.28 31.88 32.28 31.92 31.72 34.25 33.91 34.70 35.08 35.37 35.25 34.54 34.25 34.46 34.74 35.55 30.27 35.73 34.61 36.92 37.23 35.74 35.61 35.38 35.17 35.52 34.97 34.99 35.69 36.48 36.28
40.48 40.05 39.00 36.13 35.56 35.42 31.23 29.63 28.32 28.75 30.95 30.16 29.40 28.71 28.15 27.64 29.36 33.66 31.14 29.54 29.11 31.51 34.22 31.44 33.37 33.23 33.70 34.17 36.82 36.57 35.48 35.33 35.34 34.40 33.99 34.54 35.90 35.91
34.23 35.18 34.84 34.54 33.06 33.25 32.46 31.04 28.07 27.14 27.04 26.76 26.01 26.05 27.93 28.48 26.17 29.73 30.08 27.45 27.69 27.38 33.42 29.72 30.94 30.14 28.88 33.74 34.97 34.85 36.83 35.90 34.86 34.63 34.34 34.57 35.06 37.30
30.95 30.96 32.00 32.63 32.40 32.44 31.77 30.71 29.35 29.06 27.71 28.40 29.62 30.25 30.44 30.25 30.40 29.73 29.80 28.50 26.76 27.28 30.72 29.53 28.54 28.16 27.88 28.18 31.35 33.08 34.41 36.16 35.78 35.46 33.81 33.94 33.38 33.00
29.01 29.69 30.49 31.18 30.75 29.70 28.04 28.00 27.67 28.27 28.24 28.45 26.81 27.19 27.44 27.87 28.28 28.29 27.78 28.05 28.73 27.41 28.90 27.49 25.71 26.30 25.64 25.17 25.33 30.63 33.49 35.27 35.31 34.20 36.46 35.08 32.22 32.46
29.55 30.65 30.19 29.39 28.14 26.67 26.12 25.60 26.27 27.17 26.56 25.82 25.48 25.98 25.97 26.17 25.40 25.32 26.08 26.94 27.36 27.61 26.15 26.24 25.79 25.86 25.97 24.83 25.02 27.08 28.59 32.66 35.33 35.86 35.71 35.04 35.00 35.50
29.51 28.78 27.92 27.45 27.35 25.03 24.84 25.66 26.08 25.71 25.19 23.93 24.01 24.29 24.10 23.56 23.40 24.24 23.18 24.29 23.02 23.26 25.92 26.74 26.14 25.68 24.45 25.79 26.65 26.69 29.47 29.20 34.87 35.75 35.07 35.50 35.69 35.61
27.51 27.54 26.96 26.58 25.93 25.75 25.71 24.24 24.44 23.73 23.60 23.72 22.79 22.25 21.92 22.05 21.94 22.68 21.64 21.41 19.93 20.25 21.44 24.02 26.00 26.60 26.83 26.21 25.09 26.89 28.48 31.50 34.58 34.39 34.10 32.84 35.06 35.79
28.26 27.22 26.73 26.65 26.07 25.29 24.47 23.38 23.31 21.00 22.75 21.79 21.46 20.77 19.99 19.76 19.31 19.76 19.43 19.00 18.63 19.98 20.88 22.94 24.00 24.02 25.45 27.94 30.31 29.55 30.50 31.83 33.64 33.50 33.78 31.88 31.67 34.89
26.72 26.08 25.75 25.95 25.19 24.22 23.65 23.05 21.96 21.37 19.24 20.05 19.05 18.35 18.31 18.27 17.40 18.03 18.61 18.75 18.74 20.17 21.45 23.06 22.58 21.99 20.58 20.21 27.46 31.25 30.50 32.44 33.94 32.24 32.99 32.04 31.73 32.89
25.54 24.69 23.88 23.53 22.75 22.02 21.55 20.72 20.68 20.66 19.87 18.66 17.95 17.68 17.20 16.67 16.22 16.81 17.87 17.65 18.22 18.86 18.73 20.44 21.72 22.54 21.00 19.89 19.76 25.10 26.82 26.11 30.66 31.70 31.37 33.06 33.49 28.06
22.65 21.99 22.23 21.64 21.01 20.73 20.04 19.46 18.54 17.91 16.51 16.22 16.53 16.24 16.52 15.95 15.50 16.09 16.37 14.54 14.71 16.07 16.71 18.73 21.61 21.54 22.37 23.12 20.92 23.26 28.73 30.29 29.12 33.28 32.24 30.81 29.92 30.74
21.52 21.03 20.15 19.49 19.09 18.30 18.24 17.77 17.08 16.74 16.26 15.80 15.19 14.99 15.06 14.84 13.77 14.02 14.64 14.51 15.19 16.10 16.69 19.13 21.07 21.52 21.38 19.87 19.34 21.60 24.50 28.10 31.81 30.87 29.13 29.12 30.29 26.93
18.25 18.26 17.85 17.41 17.15 16.53 15.96 15.48 14.33 14.00 13.61 13.27 12.98 12.96 12.91 12.05 12.92 13.42 13.48 13.71 13.77 13.95 14.87 15.46 17.83 19.48 19.15 19.51 19.93 21.00 22.85 23.77 30.14 29.32 30.14 29.13 28.41 28.33

GFSNE_sfc_wetblb_063.txt.gz
Wetbulb
61.18 61.42 61.06 60.92 61.00 61.09 60.56 59.22 56.79 52.63 52.58 55.13 52.94 56.67 56.10 57.40 54.00 52.81 51.21 47.04 45.94 45.48 45.01 45.37 46.21 46.32 46.42 46.67 46.75 47.13 47.28 47.62 47.87 48.09 48.31 48.79 49.11 49.52
60.61 60.83 61.01 61.12 61.49 61.40 60.63 59.15 57.92 55.96 51.20 56.14 55.53 56.25 54.14 53.54 51.35 51.54 52.38 46.18 45.41 44.10 43.25 43.37 43.99 44.72 44.80 44.58 44.63 44.45 44.53 44.70 44.91 45.23 45.50 45.72 46.02 46.28
61.31 61.15 60.24 61.50 61.14 61.33 60.49 59.88 57.73 54.64 51.40 54.20 50.22 50.58 52.37 49.66 48.47 49.23 50.79 50.87 49.99 44.17 43.21 42.81 42.05 41.78 41.87 42.19 41.96 41.47 41.02 41.13 41.11 40.90 41.05 41.57 42.28 42.41
60.26 60.37 59.91 59.95 60.46 60.99 59.85 57.20 55.92 54.19 51.85 50.00 48.58 48.41 46.19 46.27 46.48 47.63 48.21 49.23 49.93 46.67 44.30 42.36 41.34 40.41 39.60 39.04 39.13 39.58 40.21 38.95 38.78 38.91 39.05 39.26 39.67 39.92
60.64 60.45 60.22 60.33 59.91 57.45 56.25 54.01 53.74 51.54 51.06 50.32 48.59 45.51 45.03 46.60 44.43 44.29 45.36 45.77 47.40 46.14 41.42 40.05 39.60 39.10 38.34 38.64 39.07 38.72 38.70 38.72 38.53 37.98 37.96 37.86 37.49 37.65
60.74 60.81 60.73 60.31 58.92 56.50 55.02 53.35 52.75 50.65 50.03 48.62 47.66 41.85 43.03 42.67 41.99 40.95 41.10 43.72 43.72 46.68 43.96 39.53 39.18 38.77 38.90 38.55 37.94 38.21 38.53 38.49 38.19 38.12 37.57 36.25 36.36 36.94
60.07 60.56 59.70 56.63 51.49 52.59 54.63 53.72 51.71 49.79 48.47 46.11 44.57 38.60 38.91 38.37 38.70 39.39 38.60 39.97 42.40 43.88 41.83 40.92 41.05 40.53 40.82 38.37 38.45 39.32 39.06 38.66 37.51 37.02 36.45 36.32 36.19 36.80
58.86 59.48 57.35 50.63 50.55 45.24 45.06 46.31 50.35 48.81 45.39 43.69 41.87 39.97 39.03 37.95 37.80 36.86 36.07 34.82 33.19 41.07 39.74 38.93 40.68 38.48 39.55 40.30 38.81 37.25 36.42 36.48 36.54 36.44 36.40 36.29 36.52 36.25
58.74 57.49 56.77 55.37 48.92 52.03 39.96 36.79 36.42 36.48 37.63 42.68 40.20 37.53 35.39 36.75 36.64 33.84 33.18 33.72 33.29 37.42 38.16 35.47 38.70 36.78 38.81 38.82 37.45 36.87 36.28 36.57 36.44 36.12 35.81 36.08 35.80 35.72
59.06 58.43 56.81 52.68 46.30 40.83 36.64 33.92 32.60 32.50 32.96 35.34 34.78 32.88 33.50 34.53 34.12 34.05 34.07 35.01 36.10 36.52 36.70 30.52 36.16 35.28 37.80 38.23 37.28 36.86 36.30 35.99 35.87 35.73 35.97 35.85 35.18 34.96
41.11 41.65 41.67 38.58 38.27 37.63 33.41 31.13 30.60 29.61 32.22 32.59 32.20 31.50 30.81 29.85 29.12 33.30 31.07 31.22 30.50 31.62 35.81 33.77 33.99 32.83 35.68 34.59 35.57 36.33 36.19 35.92 35.78 35.96 35.90 35.51 34.79 35.15
33.86 34.20 34.45 34.91 34.37 34.84 33.53 32.57 28.38 27.54 27.74 27.48 27.59 27.27 28.56 27.05 26.80 29.60 31.61 29.16 28.76 28.08 33.42 30.32 31.05 31.12 28.26 34.20 34.79 35.72 34.98 35.67 35.43 36.17 36.27 35.94 34.97 34.47
31.23 31.09 31.90 33.06 33.57 33.35 32.64 30.61 28.39 29.19 28.42 28.24 28.01 28.70 29.66 29.73 29.37 28.90 30.06 29.17 27.61 27.63 31.32 29.73 28.46 28.67 28.05 27.84 30.60 32.83 33.04 33.10 35.01 36.75 36.36 35.48 34.61 34.72
29.44 30.20 30.68 31.44 31.35 30.93 29.49 29.34 28.93 29.29 28.79 27.33 27.40 27.34 27.49 27.19 28.82 29.81 29.07 28.76 28.93 27.71 29.47 29.49 26.27 25.95 25.36 25.12 24.87 29.64 31.33 31.81 33.23 34.08 35.99 36.55 34.45 33.95
29.19 29.38 29.13 28.76 28.40 27.65 28.14 27.96 28.34 28.89 28.33 27.25 26.46 27.28 27.54 27.45 27.20 26.56 27.14 27.46 27.60 28.39 28.37 28.40 26.63 25.41 25.73 24.35 24.28 25.96 26.87 29.78 32.23 33.14 35.47 36.17 35.61 35.62
28.31 28.22 27.06 26.65 26.56 26.52 27.13 27.68 27.36 27.06 26.97 26.46 25.93 26.21 26.20 25.04 24.85 26.01 24.90 25.01 24.29 24.72 27.88 27.88 26.84 26.48 24.63 24.89 25.19 25.09 27.46 26.52 31.05 32.46 33.95 35.64 36.64 36.61
28.57 28.27 27.88 27.57 26.90 26.89 26.34 25.84 25.53 25.43 25.37 24.91 24.25 24.20 24.03 23.72 23.87 24.73 23.51 22.66 21.06 21.22 22.92 24.76 26.69 27.13 26.54 25.38 23.66 25.47 26.34 27.84 30.44 31.33 32.43 32.46 35.08 35.85
29.99 28.49 27.58 27.77 26.92 26.52 25.64 24.41 24.34 23.18 22.76 22.30 22.48 21.99 20.79 20.61 20.83 21.39 21.46 20.18 19.41 20.51 21.29 23.24 24.29 23.76 24.65 26.64 28.18 25.88 27.60 28.82 31.20 31.97 32.55 32.27 32.61 35.06
27.36 26.87 26.58 26.62 25.36 24.52 24.17 23.58 23.02 21.34 20.72 20.95 20.18 20.15 20.29 19.66 19.31 19.13 19.18 19.46 19.10 19.88 20.87 22.49 22.33 21.21 18.82 18.19 25.33 29.98 25.99 26.23 25.82 26.45 27.99 32.78 32.13 33.34
25.12 24.16 23.23 23.64 22.60 21.87 21.81 21.17 21.46 21.60 20.82 19.54 19.06 18.85 18.57 17.80 17.10 17.09 17.60 17.80 18.04 18.17 18.00 19.90 20.02 20.74 20.02 18.70 18.80 22.73 25.45 23.60 24.49 25.44 26.85 32.64 33.74 29.91
22.71 22.09 22.60 21.75 21.50 21.45 20.89 20.53 19.73 19.34 18.11 18.22 18.41 18.07 17.93 16.65 15.61 15.75 16.06 15.56 15.24 15.48 15.07 16.85 20.34 22.17 22.45 22.82 19.18 20.64 25.44 28.51 28.15 26.63 27.57 26.37 30.60 30.07
21.25 20.12 19.87 19.62 19.24 18.89 19.09 19.16 18.41 17.77 17.29 16.44 16.03 15.73 15.68 15.26 13.97 13.67 14.00 13.76 13.86 14.54 15.03 17.63 19.54 19.96 19.58 18.68 17.80 19.44 22.48 26.02 28.13 28.32 28.27 28.87 29.88 26.87
18.34 18.61 18.62 18.03 17.69 16.95 16.46 15.73 14.92 14.73 14.28 13.79 13.52 13.35 13.19 11.97 12.76 13.04 13.76 13.51 13.23 13.20 13.63 14.07 15.85 17.53 16.90 17.22 17.35 18.54 19.54 21.77 24.22 24.94 27.63 29.95 29.46 29.39

GFSNE_sfc_wetblb_069.txt.gz
Wetbulb
56.86 56.91 56.49 56.95 57.17 57.09 56.09 55.42 52.96 48.20 49.57 51.49 52.66 54.64 55.44 55.18 53.73 53.84 53.31 52.15 48.46 47.93 49.22 50.95 52.77 54.09 53.97 53.48 53.11 53.08 53.07 52.73 51.76 50.90 50.73 50.66 50.41 50.22
56.57 56.23 55.73 56.30 56.55 56.71 56.60 56.01 55.22 53.24 49.79 52.45 52.28 54.12 54.54 55.18 54.19 53.50 53.76 51.80 48.55 46.84 46.57 48.00 49.46 50.17 49.98 49.86 49.85 49.91 49.85 49.86 49.44 49.19 48.90 48.41 48.04 47.62
55.49 55.18 55.56 56.58 55.88 56.24 56.86 56.33 55.35 55.04 51.65 52.97 53.91 53.63 52.86 53.36 54.34 54.11 54.58 53.55 52.46 46.46 45.97 46.14 47.15 46.09 46.11 46.27 46.36 46.83 47.34 47.58 47.31 46.80 46.22 45.50 45.02 43.70
54.55 54.14 54.68 55.66 55.14 55.58 55.77 55.49 55.30 55.07 53.72 51.69 53.88 54.10 51.48 53.63 54.24 53.30 51.09 51.73 51.84 46.88 45.23 44.54 44.99 43.75 43.46 43.43 43.52 43.39 43.38 43.46 43.09 42.20 41.72 41.03 40.95 41.03
55.44 54.74 54.56 54.45 53.98 55.02 55.27 55.02 55.18 55.44 55.58 54.18 53.73 55.22 54.50 46.45 48.42 45.91 50.45 49.92 49.35 48.22 43.78 43.78 43.61 43.15 42.65 42.13 41.70 41.28 40.22 39.22 39.30 39.71 39.39 38.76 38.59 38.36
56.05 55.73 55.46 54.89 54.38 54.75 55.15 55.25 55.33 55.12 55.12 55.15 54.97 54.83 52.35 47.66 49.74 49.36 45.97 46.73 47.43 48.77 46.05 44.24 43.55 42.98 42.27 41.24 40.62 39.19 37.65 37.49 39.25 39.18 38.63 37.90 37.44 38.07
56.20 55.82 55.72 54.61 50.85 53.00 55.68 55.68 55.53 54.91 54.79 54.71 54.26 53.74 50.68 40.06 44.19 48.32 46.74 48.25 44.58 44.90 42.89 42.57 41.55 41.33 40.86 39.45 38.05 37.90 37.84 38.50 39.07 39.57 39.25 38.47 37.54 37.38
54.52 54.86 55.20 49.55 49.40 45.30 45.23 46.76 52.97 54.86 54.48 54.40 53.83 52.22 51.87 48.84 49.01 47.14 42.75 36.57 36.04 40.17 37.85 37.13 38.65 37.06 38.15 37.76 37.20 38.10 38.66 38.88 39.09 39.11 39.34 38.90 37.86 37.18
55.15 54.90 55.22 55.55 49.98 54.82 47.31 42.09 37.85 37.89 39.51 48.78 52.47 52.48 49.56 44.47 40.38 35.66 34.58 34.51 32.78 35.04 35.14 32.78 36.28 34.53 37.58 38.42 38.02 38.28 38.30 38.36 38.50 38.08 37.57 37.17 36.59 36.28
56.63 56.63 56.66 56.14 53.54 52.63 40.12 34.09 33.04 33.11 34.50 35.90 36.49 35.25 35.24 35.93 36.78 36.14 34.33 32.43 32.51 33.22 34.14 29.65 32.98 31.89 35.46 36.18 37.18 37.43 36.31 36.24 36.56 36.63 36.84 36.44 35.99 35.93
39.14 39.14 42.04 42.89 39.69 40.91 36.05 31.50 29.88 29.92 33.10 33.62 33.07 32.92 33.19 34.01 34.89 34.50 31.55 31.07 29.03 29.96 33.34 30.66 30.28 30.82 30.73 30.99 33.39 36.06 34.61 34.37 34.44 35.00 35.76 35.94 35.76 35.44
33.34 34.24 34.65 35.22 35.55 35.61 33.61 31.35 28.03 27.70 28.97 28.92 28.15 28.65 29.61 30.41 31.38 31.31 31.73 29.08 28.43 27.17 28.13 28.61 26.64 27.32 25.77 28.79 29.49 28.89 29.24 31.91 31.96 32.41 33.44 34.37 35.00 31.73
31.65 31.49 32.07 33.23 33.20 32.58 31.74 29.94 28.38 28.89 28.45 28.36 28.00 27.69 28.20 28.40 28.54 28.26 28.16 28.51 27.05 26.28 27.16 26.97 25.69 25.58 26.04 25.03 26.07 27.31 27.35 27.47 27.77 28.81 31.14 31.84 32.89 32.37
29.72 30.53 31.23 32.10 31.80 31.46 30.43 30.61 30.00 29.14 28.67 27.71 27.06 26.30 25.76 25.54 26.05 26.71 26.95 26.67 26.86 25.80 26.93 26.81 24.00 23.80 22.29 20.95 20.51 24.33 25.34 26.03 25.81 25.61 26.08 28.83 30.89 31.81
29.74 30.22 30.19 29.61 28.91 28.39 29.74 29.86 29.03 28.39 27.35 25.07 23.76 23.75 24.65 25.94 26.53 26.65 27.30 27.08 26.97 27.26 27.57 27.53 26.41 25.34 23.49 21.24 20.55 21.24 21.88 23.68 25.05 24.35 24.78 25.10 25.84 25.75
27.26 27.50 26.77 26.20 25.78 25.62 26.07 26.43 25.68 25.40 24.51 23.58 23.38 24.55 25.54 25.30 24.52 25.51 24.19 23.68 22.80 22.59 25.16 26.31 25.60 25.09 22.64 22.83 22.03 20.14 21.31 19.46 22.12 23.22 23.90 24.31 25.29 25.71
27.96 26.88 25.26 24.40 23.35 23.17 23.51 22.74 22.94 22.86 21.83 22.13 21.68 21.08 21.03 21.56 21.37 22.24 21.31 20.71 17.98 18.65 19.66 22.57 24.39 24.37 23.21 22.80 19.65 20.58 20.70 21.17 22.32 22.92 23.83 23.03 22.66 24.82
25.61 23.78 22.69 22.61 22.13 21.73 19.49 19.29 20.42 20.70 20.78 20.49 19.37 18.91 17.70 17.79 17.95 18.85 19.16 17.17 15.17 16.98 17.53 19.20 19.04 17.98 19.04 20.69 23.48 20.43 20.47 19.75 20.39 21.13 21.79 19.43 18.68 20.86
21.70 21.32 20.63 20.46 20.27 20.42 19.84 19.47 17.59 17.95 18.74 17.62 16.71 16.61 16.45 15.96 14.84 14.85 14.80 14.46 13.65 13.96 14.62 15.65 15.16 14.24 10.37 8.50 17.75 22.38 16.58 18.15 18.68 17.96 19.48 19.12 18.22 20.73
19.80 18.50 17.98 18.38 18.47 17.56 17.46 17.18 16.38 15.71 15.18 14.97 13.36 12.10 10.25 11.73 10.99 11.17 11.44 8.66 10.79 11.80 12.43 13.99 14.06 14.49 11.37 9.48 10.74 14.82 21.58 17.42 16.55 16.51 18.43 20.75 21.73 25.32
17.03 16.47 16.29 15.74 15.31 14.65 13.18 12.36 10.99 10.27 8.55 6.70 7.26 7.60 3.92 8.41 6.79 8.06 6.80 5.99 5.24 10.45 9.67 10.67 12.88 15.07 15.48 14.90 7.55 8.22 13.54 20.49 19.87 17.02 17.41 16.44 16.63 18.21
14.82 13.63 13.29 12.56 11.38 10.94 9.33 8.21 8.05 7.72 7.58 7.77 3.91 2.04 -0.60 3.61 3.50 3.36 4.05 5.49 8.35 8.69 9.21 11.10 13.44 13.96 12.36 11.13 8.81 8.36 11.02 14.17 18.12 20.37 21.55 20.71 17.21 15.40
10.44 11.09 10.06 8.76 8.31 7.94 8.18 6.65 5.68 5.01 5.06 3.97 3.04 3.67 -1.59 -0.04 3.59 3.26 2.82 6.48 6.91 6.73 7.83 8.11 9.16 10.48 10.03 10.15 9.01 8.65 9.49 10.16 12.90 13.63 16.00 22.06 24.16 24.54

GFSNE_sfc_wetblb_072.txt.gz
Wetbulb
56.20 55.58 55.74 56.57 56.70 56.48 55.90 54.59 52.88 49.32 48.39 50.76 51.46 53.75 54.03 54.14 52.73 52.91 52.91 51.42 48.88 48.14 48.30 49.41 51.57 53.23 54.14 55.20 56.02 56.83 57.46 57.72 57.56 57.04 56.38 55.42 54.22 53.27
56.13 55.85 55.93 55.96 56.10 56.27 56.46 55.95 55.28 53.42 50.27 50.69 51.48 53.73 54.63 55.03 54.48 53.88 54.38 51.97 49.28 47.82 47.10 47.52 48.66 50.13 51.59 52.63 53.79 54.67 55.42 55.58 54.69 53.58 52.74 51.52 51.34 50.92
56.04 55.38 55.07 55.48 54.90 55.43 55.90 55.68 54.81 54.46 51.97 53.38 53.97 52.37 52.36 53.37 54.40 54.38 54.66 54.22 54.13 48.39 46.89 46.61 46.41 46.78 48.01 49.29 50.26 50.13 50.40 49.91 49.40 49.12 48.84 48.78 48.72 48.55
55.46 55.35 55.11 55.22 54.50 54.36 54.36 54.32 54.51 54.87 53.13 51.31 53.13 52.95 50.32 53.01 53.68 53.50 53.71 54.14 54.28 51.18 47.77 46.16 45.68 45.86 46.25 46.53 46.68 46.01 45.92 46.10 45.90 45.53 44.78 44.51 44.59 44.76
55.67 55.27 54.77 54.68 54.04 54.19 54.17 54.04 54.42 54.43 53.95 52.53 52.22 54.21 53.99 48.91 51.66 50.46 53.03 51.91 52.17 50.72 46.55 45.13 44.62 45.05 45.04 44.98 44.35 43.91 43.32 42.50 41.17 40.32 39.80 39.72 39.27 39.32
55.58 55.31 54.85 54.17 53.48 53.58 53.54 53.58 53.71 53.48 53.70 53.18 53.16 53.25 53.75 53.60 52.58 53.21 51.91 50.64 51.56 51.77 47.27 44.91 44.06 44.14 43.70 42.93 42.21 41.70 40.70 39.26 38.19 37.56 37.17 36.44 36.00 36.94
55.13 55.26 55.29 53.87 50.34 51.57 53.72 53.35 52.99 52.80 52.81 52.77 52.69 53.15 53.34 49.06 47.23 52.58 50.75 52.89 50.16 49.08 45.06 43.43 43.17 42.75 42.57 41.65 40.83 38.99 38.17 38.07 37.95 37.83 37.41 36.88 36.94 37.13
55.27 55.51 55.69 49.65 49.29 45.48 44.94 46.01 51.34 53.13 52.66 53.01 53.05 52.35 52.78 53.61 53.09 51.23 52.14 40.66 41.00 40.67 39.67 37.17 39.00 38.32 39.41 38.84 38.61 38.09 37.80 37.61 37.82 37.99 37.82 37.57 37.67 37.49
56.23 55.87 55.69 55.97 49.43 53.71 46.66 42.29 42.88 38.91 40.42 51.26 53.27 53.40 53.33 54.19 53.68 45.66 41.17 38.05 35.57 35.88 36.28 33.02 36.09 35.43 38.46 38.33 37.37 37.77 37.64 37.58 38.06 38.61 38.61 38.12 38.10 37.58
56.55 56.09 55.26 55.12 54.56 53.36 52.30 50.91 38.30 34.37 35.40 37.30 41.07 40.91 37.87 38.35 40.85 40.09 36.77 32.52 32.44 33.06 34.64 30.31 33.02 32.46 36.45 37.00 37.57 37.80 38.02 37.09 37.27 38.05 38.05 37.48 36.57 36.33
53.38 43.28 43.83 47.50 47.57 45.30 49.83 38.78 32.04 31.09 33.74 34.25 33.84 33.60 33.84 34.38 35.95 35.96 33.15 33.51 30.02 29.77 32.82 31.18 31.34 31.40 31.78 32.64 34.44 36.73 36.22 35.59 35.40 35.52 35.54 35.51 35.58 35.47
34.03 34.33 34.69 35.47 35.94 37.25 38.05 32.82 28.64 28.32 28.50 28.82 28.86 29.42 29.98 29.81 30.43 29.85 31.98 30.26 28.49 26.40 27.28 28.79 27.15 28.31 27.17 28.42 30.13 28.74 29.01 30.85 30.81 31.40 31.73 32.25 33.72 31.37
31.86 31.32 31.95 33.20 33.27 32.90 32.38 30.70 29.59 29.34 28.57 28.14 27.64 27.46 27.17 26.92 27.19 27.47 27.36 27.94 27.25 23.56 27.24 27.89 26.10 26.29 26.26 24.96 25.30 27.09 26.78 26.60 26.63 26.73 28.59 29.47 30.13 30.04
29.91 30.31 31.15 31.85 31.78 31.28 30.27 30.52 30.24 29.17 28.11 26.38 25.07 24.42 24.62 25.11 26.09 26.98 27.39 27.50 27.78 26.44 27.88 27.53 24.96 24.75 23.35 21.73 21.36 25.16 25.25 25.52 25.48 24.77 25.75 27.55 28.35 29.35
27.81 28.48 28.51 28.50 28.44 27.43 28.24 27.92 27.17 26.34 25.15 23.28 22.61 22.98 24.79 25.92 26.86 26.92 26.79 27.17 26.63 25.92 26.26 26.62 25.64 25.18 24.47 21.81 21.05 21.67 21.94 23.19 24.73 23.51 22.53 22.89 23.05 24.07
26.72 26.44 26.00 25.49 23.98 23.93 23.98 24.39 24.14 23.99 23.42 22.28 21.61 22.71 24.21 22.81 21.96 22.91 21.43 21.93 21.40 21.15 23.96 24.68 24.19 23.71 21.26 21.52 21.43 20.37 21.55 19.41 21.59 22.30 23.11 23.18 23.32 22.15
26.16 25.37 23.60 22.71 20.95 20.77 21.24 21.63 21.70 21.68 20.45 20.94 20.51 20.09 19.54 19.65 19.57 20.41 19.79 19.14 17.23 17.51 18.08 20.55 21.48 21.12 21.69 21.33 18.50 20.00 20.80 21.53 22.26 21.16 20.70 18.79 18.65 20.22
23.23 21.17 20.19 19.89 18.87 18.98 18.99 18.83 18.99 18.96 19.27 18.85 17.99 17.92 16.66 16.44 16.38 16.62 16.35 14.84 13.62 14.04 14.21 15.44 15.61 15.40 16.68 18.39 21.41 16.81 16.06 16.29 17.58 19.03 19.52 16.76 16.80 19.47
19.56 18.63 17.82 17.65 17.81 18.32 17.40 16.88 16.11 17.40 17.33 15.66 14.17 14.17 14.36 14.16 13.36 12.92 12.01 11.81 11.22 11.96 12.84 14.35 14.10 12.85 7.77 4.32 13.86 19.17 13.72 14.65 15.59 15.76 17.23 17.26 16.54 18.74
17.17 15.88 15.40 15.55 15.30 15.00 14.76 13.84 13.27 13.06 12.60 11.90 9.80 8.67 8.01 9.49 8.96 9.25 9.62 5.84 8.43 10.34 10.56 12.06 11.56 10.98 7.47 1.77 6.40 11.67 19.33 14.70 13.93 13.26 13.51 16.16 17.16 20.78
13.80 12.73 12.53 12.07 11.56 10.93 8.97 8.95 7.44 7.97 7.22 5.26 3.94 4.37 0.41 6.08 4.91 5.70 4.32 2.18 4.30 8.80 7.35 7.92 10.72 13.53 13.47 12.43 0.83 3.81 11.43 17.66 17.16 14.01 13.74 12.25 12.13 14.15
10.77 9.83 9.09 8.00 7.76 7.54 5.38 2.46 3.95 3.18 3.35 3.45 -3.71 -5.01 -6.64 -1.27 -0.46 0.35 -0.53 -0.28 5.89 6.13 7.31 9.41 11.26 10.91 10.03 8.26 6.07 3.80 8.35 11.36 15.39 17.84 19.10 18.15 14.38 10.91
7.40 6.84 4.94 4.33 5.22 4.09 4.03 1.76 0.15 -0.80 -2.21 -3.41 -3.59 -2.21 -12.77 -5.16 0.29 -0.58 -1.11 2.22 4.57 4.83 5.57 5.38 7.44 8.71 7.77 7.80 6.77 6.25 7.00 8.15 10.97 11.17 13.16 18.43 19.72 20.69

GFSNE_sfc_wetblb_075.txt.gz
Wetbulb
55.98 55.06 54.60 55.40 55.54 55.50 54.91 53.86 52.22 48.35 48.89 50.25 50.41 52.71 52.82 53.15 52.33 52.55 52.31 51.42 48.74 48.41 48.56 50.01 51.98 53.40 54.05 54.73 55.56 56.63 57.60 58.33 58.63 58.89 59.05 59.24 59.20 59.07
56.25 55.73 55.54 55.65 55.76 56.14 55.98 55.50 54.74 53.13 50.47 53.58 53.32 53.52 54.10 53.65 52.82 52.43 52.63 50.66 48.70 47.09 46.78 47.08 48.23 49.88 51.18 51.86 52.48 53.26 54.48 55.29 56.31 57.02 57.78 58.06 58.53 58.21
55.97 55.14 54.95 55.87 55.33 55.49 55.61 55.28 54.16 53.99 51.69 53.38 54.70 55.35 52.07 53.11 54.31 54.26 53.99 53.47 53.75 48.47 47.22 46.96 46.50 46.59 47.54 48.20 48.85 49.88 50.97 52.29 53.34 54.85 56.20 55.46 54.06 53.17
55.76 55.56 55.19 55.33 54.62 54.58 54.46 54.06 53.96 54.55 53.27 51.44 53.54 53.85 50.29 52.61 53.30 53.50 54.02 54.49 54.71 52.49 48.72 47.36 46.91 46.13 45.78 45.78 46.35 46.52 47.13 48.54 50.11 51.62 50.91 50.82 51.18 50.95
55.78 55.48 55.33 55.08 54.35 54.30 54.03 53.48 53.71 53.87 53.68 52.79 52.45 54.21 54.00 51.30 50.18 51.26 52.42 53.32 53.64 52.51 48.53 47.06 47.15 46.93 46.10 45.36 45.54 45.68 46.03 46.61 45.38 45.11 45.27 45.33 45.95 45.92
56.11 55.81 55.56 55.09 54.62 54.56 54.30 54.02 53.65 53.21 53.05 52.73 52.70 52.55 52.92 53.77 50.33 52.01 52.23 51.87 51.67 53.36 50.76 49.20 47.59 45.89 44.78 44.25 43.96 44.78 44.91 43.53 42.55 41.33 40.20 39.15 38.79 38.98
54.58 54.66 54.97 53.75 50.08 51.67 54.07 53.50 52.94 52.13 52.07 51.65 51.75 52.08 52.14 51.96 51.33 53.09 52.48 53.13 54.01 52.36 52.05 48.70 46.97 44.53 44.15 43.47 44.15 43.32 41.88 40.97 40.05 39.35 38.54 37.47 36.80 36.91
54.02 54.35 54.65 49.25 49.00 45.26 44.44 45.85 51.00 52.12 51.28 51.60 51.56 51.09 51.66 52.59 53.56 53.17 51.68 51.32 50.04 43.77 43.71 39.96 41.50 40.79 42.11 42.30 41.07 39.46 38.99 38.86 38.93 38.75 38.19 37.58 36.97 36.38
54.66 54.90 55.06 55.59 50.11 54.27 46.86 42.53 43.25 42.76 45.59 53.09 51.98 52.25 52.33 53.38 53.79 52.65 52.29 51.08 51.00 39.84 37.30 33.59 36.44 35.71 38.84 39.09 38.71 38.61 38.16 37.78 37.67 37.86 37.92 37.65 37.41 37.17
55.30 55.27 55.30 55.36 55.35 54.46 53.99 53.02 50.30 46.99 41.58 41.98 46.31 44.93 40.15 37.57 40.71 42.68 42.79 33.30 33.25 33.27 34.88 31.91 33.24 32.50 36.47 37.38 38.27 38.16 37.79 37.34 37.17 37.38 37.70 37.70 37.43 37.51
54.59 45.33 39.40 44.98 43.11 41.43 51.49 51.15 39.63 31.58 33.34 33.70 33.81 32.64 32.54 32.69 33.99 36.09 32.91 33.96 31.19 28.32 29.12 31.54 30.99 31.02 31.43 31.83 33.98 36.40 36.30 35.57 34.80 34.83 34.32 34.21 34.49 35.02
35.03 33.66 34.02 33.77 35.12 36.39 37.98 41.83 32.09 28.07 28.55 28.58 28.26 28.52 28.99 29.41 29.93 28.59 31.27 29.64 28.64 26.88 27.12 28.18 28.04 29.06 27.15 28.82 29.18 29.17 29.51 30.29 30.52 30.76 30.85 31.13 31.28 29.80
31.32 30.45 31.31 32.43 32.65 32.75 32.48 31.20 28.98 29.18 27.89 27.22 26.73 26.42 26.44 26.42 26.57 27.24 27.43 26.94 24.83 22.85 27.31 28.10 26.23 26.73 26.24 25.83 26.95 27.06 27.14 26.90 26.63 26.79 27.94 28.38 28.91 28.86
27.61 27.85 29.00 30.30 30.53 30.35 29.09 29.36 28.79 27.23 26.14 24.98 24.29 23.73 24.07 24.74 25.17 26.09 26.71 26.42 26.74 25.38 26.49 27.06 25.09 24.43 23.38 22.40 22.58 25.86 25.95 25.87 25.38 25.05 25.78 26.58 26.81 27.20
27.59 27.37 27.22 27.49 27.18 26.53 27.26 26.90 26.06 25.37 24.11 22.55 21.52 21.22 22.12 23.19 24.09 23.89 25.16 25.94 24.72 25.06 25.76 25.24 24.29 24.23 23.82 22.36 21.89 22.51 22.05 23.79 24.99 23.73 23.94 23.38 22.52 22.50
25.49 24.35 23.91 24.01 22.92 22.79 22.68 22.86 22.51 22.00 21.23 20.16 19.72 20.73 21.59 20.92 19.97 21.42 20.37 21.78 20.30 20.47 22.11 21.80 20.93 21.79 20.35 21.00 21.05 20.10 21.71 19.74 22.22 22.13 22.02 22.11 20.92 19.59
23.15 22.14 20.94 20.44 19.74 19.47 19.12 19.48 19.86 19.53 18.32 18.71 18.32 17.95 18.08 18.28 17.07 18.15 17.85 17.56 15.27 14.91 15.12 17.68 19.73 20.26 20.18 19.55 17.27 16.31 16.08 16.44 17.76 18.19 18.20 17.07 16.51 17.33
20.26 18.30 17.44 17.37 16.59 16.82 16.62 16.62 16.91 16.54 16.32 16.47 15.62 15.44 14.75 14.55 14.30 14.27 14.63 13.55 12.42 12.79 13.09 15.03 15.34 14.42 14.67 15.68 19.08 14.15 13.95 13.43 14.97 16.67 17.37 14.55 14.98 17.56
16.16 15.70 14.77 15.14 15.41 15.56 14.88 14.48 13.15 14.03 13.86 12.28 11.85 11.85 12.56 12.31 11.93 11.53 11.06 10.71 10.58 11.59 12.20 13.21 11.95 9.99 3.67 1.61 11.90 17.67 12.48 13.84 13.72 12.42 14.06 13.77 12.03 14.60
13.57 12.59 11.68 12.11 12.29 11.85 11.85 11.19 10.32 9.40 8.93 8.78 7.41 6.67 7.44 8.44 7.62 7.82 8.44 6.47 8.31 9.47 9.50 10.37 9.92 9.43 6.29 -0.10 1.74 9.86 16.68 12.18 10.92 10.60 11.04 13.75 14.66 18.43
10.08 9.01 8.89 9.48 9.40 8.75 7.26 6.18 6.00 4.59 3.32 2.04 1.46 2.08 -0.06 4.97 3.54 4.55 4.64 4.39 5.35 6.87 5.83 6.64 9.09 11.96 11.64 10.69 -1.96 0.15 9.10 16.03 15.55 12.13 11.86 10.75 10.68 12.11
6.94 6.83 6.82 5.86 4.84 4.72 1.75 1.40 1.88 0.99 0.92 1.36 -2.52 -5.01 -6.43 -0.21 0.36 0.50 0.30 -0.11 4.96 5.06 5.55 7.32 9.42 9.63 8.73 6.66 4.73 1.98 6.59 9.24 13.28 15.97 17.15 16.20 11.28 7.99
2.26 3.89 2.21 -0.53 0.37 0.01 1.34 -2.75 -3.57 -3.86 -3.24 -4.15 -4.53 -4.15 -13.82 -5.70 -0.96 -1.44 -2.54 -0.29 2.29 2.88 4.05 4.19 5.95 7.13 6.31 6.06 5.21 4.57 5.03 5.37 8.07 8.25 10.65 16.31 17.49 18.27